<?xml version="1.0" encoding="UTF-8" standalone="no" ?>
<gpx xmlns="http://www.topografix.com/GPX/1/1" xmlns:xsi="http://www.w3.org/2001/XMLSchema-instance" xsi:schemaLocation="http://www.topografix.com/GPX/1/1 http://www.topografix.com/GPX/1/1/gpx.xsd" version="1.1" creator="VisuGPX - https://www.visugpx.com">
  <metadata>
    <name>HBaV GRAVEL M</name>
  </metadata>
  <trk>
    <name><![CDATA[rando - gravel moyen-23534564]]></name>
    <extensions>
      <line xmlns="http://www.topografix.com/GPX/gpx_style/0/2">
        <color>ff004c</color>
        <opacity>1</opacity>
        <width>4</width>
      </line>
    </extensions>
    <trkseg>
      <trkpt lat="48.74248" lon="7.36346">
        <ele>192</ele>
        <time>2026-05-13T13:18:09Z</time>
      </trkpt>
      <trkpt lat="48.74255" lon="7.36337">
        <ele>192</ele>
        <time>2026-05-13T13:18:11Z</time>
      </trkpt>
      <trkpt lat="48.74274" lon="7.36315">
        <ele>189</ele>
        <time>2026-05-13T13:18:15Z</time>
      </trkpt>
      <trkpt lat="48.74282" lon="7.36305">
        <ele>189</ele>
        <time>2026-05-13T13:18:17Z</time>
      </trkpt>
      <trkpt lat="48.74287" lon="7.36299">
        <ele>188</ele>
        <time>2026-05-13T13:18:18Z</time>
      </trkpt>
      <trkpt lat="48.74261" lon="7.3625">
        <ele>188</ele>
        <time>2026-05-13T13:18:25Z</time>
      </trkpt>
      <trkpt lat="48.74201" lon="7.36139">
        <ele>195</ele>
        <time>2026-05-13T13:18:42Z</time>
      </trkpt>
      <trkpt lat="48.74194" lon="7.36124">
        <ele>196</ele>
        <time>2026-05-13T13:18:44Z</time>
      </trkpt>
      <trkpt lat="48.74186" lon="7.36107">
        <ele>197</ele>
        <time>2026-05-13T13:18:47Z</time>
      </trkpt>
      <trkpt lat="48.74174" lon="7.36082">
        <ele>198</ele>
        <time>2026-05-13T13:18:50Z</time>
      </trkpt>
      <trkpt lat="48.74152" lon="7.36043">
        <ele>198</ele>
        <time>2026-05-13T13:18:56Z</time>
      </trkpt>
      <trkpt lat="48.74114" lon="7.35971">
        <ele>198</ele>
        <time>2026-05-13T13:19:07Z</time>
      </trkpt>
      <trkpt lat="48.74098" lon="7.35939">
        <ele>199</ele>
        <time>2026-05-13T13:19:12Z</time>
      </trkpt>
      <trkpt lat="48.74086" lon="7.35918">
        <ele>199</ele>
        <time>2026-05-13T13:19:15Z</time>
      </trkpt>
      <trkpt lat="48.74092" lon="7.35652">
        <ele>197</ele>
        <time>2026-05-13T13:19:46Z</time>
      </trkpt>
      <trkpt lat="48.74091" lon="7.35637">
        <ele>196</ele>
        <time>2026-05-13T13:19:48Z</time>
      </trkpt>
      <trkpt lat="48.74088" lon="7.35626">
        <ele>196</ele>
        <time>2026-05-13T13:19:50Z</time>
      </trkpt>
      <trkpt lat="48.7409" lon="7.35501">
        <ele>194</ele>
        <time>2026-05-13T13:20:04Z</time>
      </trkpt>
      <trkpt lat="48.74091" lon="7.35453">
        <ele>193</ele>
        <time>2026-05-13T13:20:10Z</time>
      </trkpt>
      <trkpt lat="48.74083" lon="7.35455">
        <ele>194</ele>
        <time>2026-05-13T13:20:11Z</time>
      </trkpt>
      <trkpt lat="48.7404" lon="7.35471">
        <ele>197</ele>
        <time>2026-05-13T13:20:19Z</time>
      </trkpt>
      <trkpt lat="48.74042" lon="7.35506">
        <ele>197</ele>
        <time>2026-05-13T13:20:23Z</time>
      </trkpt>
      <trkpt lat="48.74046" lon="7.35523">
        <ele>197</ele>
        <time>2026-05-13T13:20:25Z</time>
      </trkpt>
      <trkpt lat="48.74049" lon="7.35537">
        <ele>197</ele>
        <time>2026-05-13T13:20:27Z</time>
      </trkpt>
      <trkpt lat="48.74073" lon="7.356">
        <ele>196</ele>
        <time>2026-05-13T13:20:36Z</time>
      </trkpt>
      <trkpt lat="48.74076" lon="7.35611">
        <ele>197</ele>
        <time>2026-05-13T13:20:37Z</time>
      </trkpt>
      <trkpt lat="48.74078" lon="7.3562">
        <ele>197</ele>
        <time>2026-05-13T13:20:38Z</time>
      </trkpt>
      <trkpt lat="48.74078" lon="7.35643">
        <ele>198</ele>
        <time>2026-05-13T13:20:41Z</time>
      </trkpt>
      <trkpt lat="48.74075" lon="7.35736">
        <ele>199</ele>
        <time>2026-05-13T13:20:52Z</time>
      </trkpt>
      <trkpt lat="48.74072" lon="7.35778">
        <ele>199</ele>
        <time>2026-05-13T13:20:57Z</time>
      </trkpt>
      <trkpt lat="48.74071" lon="7.35799">
        <ele>199</ele>
        <time>2026-05-13T13:20:59Z</time>
      </trkpt>
      <trkpt lat="48.7407" lon="7.35839">
        <ele>199</ele>
        <time>2026-05-13T13:21:04Z</time>
      </trkpt>
      <trkpt lat="48.74069" lon="7.35923">
        <ele>201</ele>
        <time>2026-05-13T13:21:14Z</time>
      </trkpt>
      <trkpt lat="48.7407" lon="7.35929">
        <ele>201</ele>
        <time>2026-05-13T13:21:15Z</time>
      </trkpt>
      <trkpt lat="48.74073" lon="7.35936">
        <ele>201</ele>
        <time>2026-05-13T13:21:15Z</time>
      </trkpt>
      <trkpt lat="48.74018" lon="7.35907">
        <ele>206</ele>
        <time>2026-05-13T13:21:26Z</time>
      </trkpt>
      <trkpt lat="48.74009" lon="7.35903">
        <ele>207</ele>
        <time>2026-05-13T13:21:28Z</time>
      </trkpt>
      <trkpt lat="48.73985" lon="7.35894">
        <ele>208</ele>
        <time>2026-05-13T13:21:32Z</time>
      </trkpt>
      <trkpt lat="48.73976" lon="7.35889">
        <ele>209</ele>
        <time>2026-05-13T13:21:34Z</time>
      </trkpt>
      <trkpt lat="48.73968" lon="7.35888">
        <ele>209</ele>
        <time>2026-05-13T13:21:35Z</time>
      </trkpt>
      <trkpt lat="48.73931" lon="7.35896">
        <ele>212</ele>
        <time>2026-05-13T13:21:42Z</time>
      </trkpt>
      <trkpt lat="48.7392" lon="7.35896">
        <ele>213</ele>
        <time>2026-05-13T13:21:44Z</time>
      </trkpt>
      <trkpt lat="48.73873" lon="7.35884">
        <ele>217</ele>
        <time>2026-05-13T13:21:52Z</time>
      </trkpt>
      <trkpt lat="48.73836" lon="7.35878">
        <ele>220</ele>
        <time>2026-05-13T13:21:59Z</time>
      </trkpt>
      <trkpt lat="48.7383" lon="7.35878">
        <ele>220</ele>
        <time>2026-05-13T13:22:00Z</time>
      </trkpt>
      <trkpt lat="48.73816" lon="7.35925">
        <ele>221</ele>
        <time>2026-05-13T13:22:06Z</time>
      </trkpt>
      <trkpt lat="48.73811" lon="7.35931">
        <ele>221</ele>
        <time>2026-05-13T13:22:07Z</time>
      </trkpt>
      <trkpt lat="48.73803" lon="7.35945">
        <ele>221</ele>
        <time>2026-05-13T13:22:09Z</time>
      </trkpt>
      <trkpt lat="48.73795" lon="7.3597">
        <ele>221</ele>
        <time>2026-05-13T13:22:12Z</time>
      </trkpt>
      <trkpt lat="48.7377" lon="7.36058">
        <ele>220</ele>
        <time>2026-05-13T13:22:24Z</time>
      </trkpt>
      <trkpt lat="48.73753" lon="7.36116">
        <ele>219</ele>
        <time>2026-05-13T13:22:31Z</time>
      </trkpt>
      <trkpt lat="48.73744" lon="7.36135">
        <ele>218</ele>
        <time>2026-05-13T13:22:34Z</time>
      </trkpt>
      <trkpt lat="48.73733" lon="7.36125">
        <ele>219</ele>
        <time>2026-05-13T13:22:36Z</time>
      </trkpt>
      <trkpt lat="48.73644" lon="7.36059">
        <ele>225</ele>
        <time>2026-05-13T13:22:54Z</time>
      </trkpt>
      <trkpt lat="48.73638" lon="7.36053">
        <ele>226</ele>
        <time>2026-05-13T13:22:55Z</time>
      </trkpt>
      <trkpt lat="48.73631" lon="7.3606">
        <ele>226</ele>
        <time>2026-05-13T13:22:57Z</time>
      </trkpt>
      <trkpt lat="48.73539" lon="7.3609">
        <ele>224</ele>
        <time>2026-05-13T13:23:13Z</time>
      </trkpt>
      <trkpt lat="48.73493" lon="7.36106">
        <ele>221</ele>
        <time>2026-05-13T13:23:22Z</time>
      </trkpt>
      <trkpt lat="48.73492" lon="7.36101">
        <ele>222</ele>
        <time>2026-05-13T13:23:22Z</time>
      </trkpt>
      <trkpt lat="48.73492" lon="7.36093">
        <ele>222</ele>
        <time>2026-05-13T13:23:23Z</time>
      </trkpt>
      <trkpt lat="48.73492" lon="7.36101">
        <ele>222</ele>
        <time>2026-05-13T13:23:24Z</time>
      </trkpt>
      <trkpt lat="48.73493" lon="7.36106">
        <ele>221</ele>
        <time>2026-05-13T13:23:25Z</time>
      </trkpt>
      <trkpt lat="48.73433" lon="7.36118">
        <ele>218</ele>
        <time>2026-05-13T13:23:36Z</time>
      </trkpt>
      <trkpt lat="48.73426" lon="7.3612">
        <ele>218</ele>
        <time>2026-05-13T13:23:37Z</time>
      </trkpt>
      <trkpt lat="48.73422" lon="7.36127">
        <ele>218</ele>
        <time>2026-05-13T13:23:38Z</time>
      </trkpt>
      <trkpt lat="48.73415" lon="7.36119">
        <ele>218</ele>
        <time>2026-05-13T13:23:39Z</time>
      </trkpt>
      <trkpt lat="48.73402" lon="7.361">
        <ele>219</ele>
        <time>2026-05-13T13:23:43Z</time>
      </trkpt>
      <trkpt lat="48.73381" lon="7.36063">
        <ele>220</ele>
        <time>2026-05-13T13:23:48Z</time>
      </trkpt>
      <trkpt lat="48.73362" lon="7.36023">
        <ele>221</ele>
        <time>2026-05-13T13:23:54Z</time>
      </trkpt>
      <trkpt lat="48.73319" lon="7.35915">
        <ele>224</ele>
        <time>2026-05-13T13:24:09Z</time>
      </trkpt>
      <trkpt lat="48.73283" lon="7.35821">
        <ele>229</ele>
        <time>2026-05-13T13:24:22Z</time>
      </trkpt>
      <trkpt lat="48.73248" lon="7.35727">
        <ele>230</ele>
        <time>2026-05-13T13:24:34Z</time>
      </trkpt>
      <trkpt lat="48.73233" lon="7.35682">
        <ele>232</ele>
        <time>2026-05-13T13:24:40Z</time>
      </trkpt>
      <trkpt lat="48.73224" lon="7.35655">
        <ele>233</ele>
        <time>2026-05-13T13:24:44Z</time>
      </trkpt>
      <trkpt lat="48.73221" lon="7.35645">
        <ele>233</ele>
        <time>2026-05-13T13:24:45Z</time>
      </trkpt>
      <trkpt lat="48.73214" lon="7.35617">
        <ele>233</ele>
        <time>2026-05-13T13:24:49Z</time>
      </trkpt>
      <trkpt lat="48.73209" lon="7.35604">
        <ele>234</ele>
        <time>2026-05-13T13:24:50Z</time>
      </trkpt>
      <trkpt lat="48.73161" lon="7.35682">
        <ele>233</ele>
        <time>2026-05-13T13:25:03Z</time>
      </trkpt>
      <trkpt lat="48.73153" lon="7.3569">
        <ele>233</ele>
        <time>2026-05-13T13:25:05Z</time>
      </trkpt>
      <trkpt lat="48.73114" lon="7.35716">
        <ele>233</ele>
        <time>2026-05-13T13:25:12Z</time>
      </trkpt>
      <trkpt lat="48.73109" lon="7.3572">
        <ele>233</ele>
        <time>2026-05-13T13:25:13Z</time>
      </trkpt>
      <trkpt lat="48.73105" lon="7.35724">
        <ele>233</ele>
        <time>2026-05-13T13:25:14Z</time>
      </trkpt>
      <trkpt lat="48.73101" lon="7.35732">
        <ele>233</ele>
        <time>2026-05-13T13:25:15Z</time>
      </trkpt>
      <trkpt lat="48.7309" lon="7.35761">
        <ele>234</ele>
        <time>2026-05-13T13:25:19Z</time>
      </trkpt>
      <trkpt lat="48.73044" lon="7.35726">
        <ele>232</ele>
        <time>2026-05-13T13:25:28Z</time>
      </trkpt>
      <trkpt lat="48.73001" lon="7.35665">
        <ele>230</ele>
        <time>2026-05-13T13:25:39Z</time>
      </trkpt>
      <trkpt lat="48.72913" lon="7.35545">
        <ele>229</ele>
        <time>2026-05-13T13:26:00Z</time>
      </trkpt>
      <trkpt lat="48.72797" lon="7.35393">
        <ele>229</ele>
        <time>2026-05-13T13:26:27Z</time>
      </trkpt>
      <trkpt lat="48.7273" lon="7.35268">
        <ele>230</ele>
        <time>2026-05-13T13:26:46Z</time>
      </trkpt>
      <trkpt lat="48.72723" lon="7.35266">
        <ele>230</ele>
        <time>2026-05-13T13:26:47Z</time>
      </trkpt>
      <trkpt lat="48.72711" lon="7.35279">
        <ele>230</ele>
        <time>2026-05-13T13:26:50Z</time>
      </trkpt>
      <trkpt lat="48.72619" lon="7.35385">
        <ele>227</ele>
        <time>2026-05-13T13:27:11Z</time>
      </trkpt>
      <trkpt lat="48.72508" lon="7.35509">
        <ele>228</ele>
        <time>2026-05-13T13:27:35Z</time>
      </trkpt>
      <trkpt lat="48.72451" lon="7.35572">
        <ele>227</ele>
        <time>2026-05-13T13:27:48Z</time>
      </trkpt>
      <trkpt lat="48.72342" lon="7.3568">
        <ele>223</ele>
        <time>2026-05-13T13:28:11Z</time>
      </trkpt>
      <trkpt lat="48.72276" lon="7.35755">
        <ele>220</ele>
        <time>2026-05-13T13:28:26Z</time>
      </trkpt>
      <trkpt lat="48.72227" lon="7.35805">
        <ele>219</ele>
        <time>2026-05-13T13:28:36Z</time>
      </trkpt>
      <trkpt lat="48.72175" lon="7.3583">
        <ele>220</ele>
        <time>2026-05-13T13:28:46Z</time>
      </trkpt>
      <trkpt lat="48.72164" lon="7.35841">
        <ele>220</ele>
        <time>2026-05-13T13:28:48Z</time>
      </trkpt>
      <trkpt lat="48.72158" lon="7.35841">
        <ele>219</ele>
        <time>2026-05-13T13:28:49Z</time>
      </trkpt>
      <trkpt lat="48.72081" lon="7.35879">
        <ele>212</ele>
        <time>2026-05-13T13:29:04Z</time>
      </trkpt>
      <trkpt lat="48.72015" lon="7.35916">
        <ele>207</ele>
        <time>2026-05-13T13:29:16Z</time>
      </trkpt>
      <trkpt lat="48.72012" lon="7.35912">
        <ele>207</ele>
        <time>2026-05-13T13:29:17Z</time>
      </trkpt>
      <trkpt lat="48.72006" lon="7.35917">
        <ele>206</ele>
        <time>2026-05-13T13:29:18Z</time>
      </trkpt>
      <trkpt lat="48.71986" lon="7.35929">
        <ele>205</ele>
        <time>2026-05-13T13:29:22Z</time>
      </trkpt>
      <trkpt lat="48.7189" lon="7.35995">
        <ele>199</ele>
        <time>2026-05-13T13:29:41Z</time>
      </trkpt>
      <trkpt lat="48.71843" lon="7.36028">
        <ele>198</ele>
        <time>2026-05-13T13:29:50Z</time>
      </trkpt>
      <trkpt lat="48.7181" lon="7.36047">
        <ele>197</ele>
        <time>2026-05-13T13:29:56Z</time>
      </trkpt>
      <trkpt lat="48.71792" lon="7.3605">
        <ele>197</ele>
        <time>2026-05-13T13:29:59Z</time>
      </trkpt>
      <trkpt lat="48.71787" lon="7.36054">
        <ele>197</ele>
        <time>2026-05-13T13:30:00Z</time>
      </trkpt>
      <trkpt lat="48.71762" lon="7.36047">
        <ele>197</ele>
        <time>2026-05-13T13:30:05Z</time>
      </trkpt>
      <trkpt lat="48.71738" lon="7.36039">
        <ele>197</ele>
        <time>2026-05-13T13:30:09Z</time>
      </trkpt>
      <trkpt lat="48.71651" lon="7.35994">
        <ele>198</ele>
        <time>2026-05-13T13:30:26Z</time>
      </trkpt>
      <trkpt lat="48.71559" lon="7.35941">
        <ele>197</ele>
        <time>2026-05-13T13:30:43Z</time>
      </trkpt>
      <trkpt lat="48.71528" lon="7.35949">
        <ele>198</ele>
        <time>2026-05-13T13:30:49Z</time>
      </trkpt>
      <trkpt lat="48.71506" lon="7.35965">
        <ele>199</ele>
        <time>2026-05-13T13:30:53Z</time>
      </trkpt>
      <trkpt lat="48.71485" lon="7.35968">
        <ele>200</ele>
        <time>2026-05-13T13:30:57Z</time>
      </trkpt>
      <trkpt lat="48.71469" lon="7.35964">
        <ele>200</ele>
        <time>2026-05-13T13:31:00Z</time>
      </trkpt>
      <trkpt lat="48.71467" lon="7.35935">
        <ele>200</ele>
        <time>2026-05-13T13:31:03Z</time>
      </trkpt>
      <trkpt lat="48.71461" lon="7.35916">
        <ele>199</ele>
        <time>2026-05-13T13:31:06Z</time>
      </trkpt>
      <trkpt lat="48.71455" lon="7.35906">
        <ele>200</ele>
        <time>2026-05-13T13:31:07Z</time>
      </trkpt>
      <trkpt lat="48.71444" lon="7.35897">
        <ele>201</ele>
        <time>2026-05-13T13:31:09Z</time>
      </trkpt>
      <trkpt lat="48.71315" lon="7.35836">
        <ele>206</ele>
        <time>2026-05-13T13:31:33Z</time>
      </trkpt>
      <trkpt lat="48.71307" lon="7.35828">
        <ele>206</ele>
        <time>2026-05-13T13:31:35Z</time>
      </trkpt>
      <trkpt lat="48.713" lon="7.35812">
        <ele>207</ele>
        <time>2026-05-13T13:31:37Z</time>
      </trkpt>
      <trkpt lat="48.71292" lon="7.35771">
        <ele>207</ele>
        <time>2026-05-13T13:31:42Z</time>
      </trkpt>
      <trkpt lat="48.71199" lon="7.35456">
        <ele>214</ele>
        <time>2026-05-13T13:32:23Z</time>
      </trkpt>
      <trkpt lat="48.71197" lon="7.35434">
        <ele>215</ele>
        <time>2026-05-13T13:32:26Z</time>
      </trkpt>
      <trkpt lat="48.71208" lon="7.35229">
        <ele>217</ele>
        <time>2026-05-13T13:32:50Z</time>
      </trkpt>
      <trkpt lat="48.71205" lon="7.35208">
        <ele>218</ele>
        <time>2026-05-13T13:32:52Z</time>
      </trkpt>
      <trkpt lat="48.71197" lon="7.3519">
        <ele>218</ele>
        <time>2026-05-13T13:32:55Z</time>
      </trkpt>
      <trkpt lat="48.7117" lon="7.35162">
        <ele>220</ele>
        <time>2026-05-13T13:33:01Z</time>
      </trkpt>
      <trkpt lat="48.71162" lon="7.35147">
        <ele>220</ele>
        <time>2026-05-13T13:33:03Z</time>
      </trkpt>
      <trkpt lat="48.71135" lon="7.35012">
        <ele>220</ele>
        <time>2026-05-13T13:33:19Z</time>
      </trkpt>
      <trkpt lat="48.71112" lon="7.34915">
        <ele>221</ele>
        <time>2026-05-13T13:33:31Z</time>
      </trkpt>
      <trkpt lat="48.7106" lon="7.3475">
        <ele>229</ele>
        <time>2026-05-13T13:33:53Z</time>
      </trkpt>
      <trkpt lat="48.71055" lon="7.3472">
        <ele>230</ele>
        <time>2026-05-13T13:33:57Z</time>
      </trkpt>
      <trkpt lat="48.71048" lon="7.34624">
        <ele>234</ele>
        <time>2026-05-13T13:34:08Z</time>
      </trkpt>
      <trkpt lat="48.71013" lon="7.3465">
        <ele>233</ele>
        <time>2026-05-13T13:34:15Z</time>
      </trkpt>
      <trkpt lat="48.70959" lon="7.34683">
        <ele>234</ele>
        <time>2026-05-13T13:34:25Z</time>
      </trkpt>
      <trkpt lat="48.70944" lon="7.34689">
        <ele>235</ele>
        <time>2026-05-13T13:34:28Z</time>
      </trkpt>
      <trkpt lat="48.70847" lon="7.34714">
        <ele>238</ele>
        <time>2026-05-13T13:34:45Z</time>
      </trkpt>
      <trkpt lat="48.70824" lon="7.34715">
        <ele>238</ele>
        <time>2026-05-13T13:34:50Z</time>
      </trkpt>
      <trkpt lat="48.70813" lon="7.34718">
        <ele>238</ele>
        <time>2026-05-13T13:34:52Z</time>
      </trkpt>
      <trkpt lat="48.70809" lon="7.34719">
        <ele>238</ele>
        <time>2026-05-13T13:34:52Z</time>
      </trkpt>
      <trkpt lat="48.70782" lon="7.34732">
        <ele>238</ele>
        <time>2026-05-13T13:34:57Z</time>
      </trkpt>
      <trkpt lat="48.70756" lon="7.34741">
        <ele>237</ele>
        <time>2026-05-13T13:35:02Z</time>
      </trkpt>
      <trkpt lat="48.70742" lon="7.34748">
        <ele>237</ele>
        <time>2026-05-13T13:35:05Z</time>
      </trkpt>
      <trkpt lat="48.70734" lon="7.34756">
        <ele>237</ele>
        <time>2026-05-13T13:35:06Z</time>
      </trkpt>
      <trkpt lat="48.70721" lon="7.34731">
        <ele>237</ele>
        <time>2026-05-13T13:35:10Z</time>
      </trkpt>
      <trkpt lat="48.70714" lon="7.34732">
        <ele>237</ele>
        <time>2026-05-13T13:35:11Z</time>
      </trkpt>
      <trkpt lat="48.70695" lon="7.34729">
        <ele>237</ele>
        <time>2026-05-13T13:35:15Z</time>
      </trkpt>
      <trkpt lat="48.70681" lon="7.34724">
        <ele>237</ele>
        <time>2026-05-13T13:35:17Z</time>
      </trkpt>
      <trkpt lat="48.70666" lon="7.34716">
        <ele>237</ele>
        <time>2026-05-13T13:35:20Z</time>
      </trkpt>
      <trkpt lat="48.70584" lon="7.34629">
        <ele>234</ele>
        <time>2026-05-13T13:35:38Z</time>
      </trkpt>
      <trkpt lat="48.7052" lon="7.34579">
        <ele>231</ele>
        <time>2026-05-13T13:35:51Z</time>
      </trkpt>
      <trkpt lat="48.70464" lon="7.34536">
        <ele>229</ele>
        <time>2026-05-13T13:36:02Z</time>
      </trkpt>
      <trkpt lat="48.70436" lon="7.34484">
        <ele>229</ele>
        <time>2026-05-13T13:36:10Z</time>
      </trkpt>
      <trkpt lat="48.70426" lon="7.34472">
        <ele>228</ele>
        <time>2026-05-13T13:36:12Z</time>
      </trkpt>
      <trkpt lat="48.70422" lon="7.34462">
        <ele>228</ele>
        <time>2026-05-13T13:36:13Z</time>
      </trkpt>
      <trkpt lat="48.70364" lon="7.34281">
        <ele>238</ele>
        <time>2026-05-13T13:36:37Z</time>
      </trkpt>
      <trkpt lat="48.70351" lon="7.34235">
        <ele>240</ele>
        <time>2026-05-13T13:36:43Z</time>
      </trkpt>
      <trkpt lat="48.70345" lon="7.34209">
        <ele>241</ele>
        <time>2026-05-13T13:36:46Z</time>
      </trkpt>
      <trkpt lat="48.7033" lon="7.34192">
        <ele>241</ele>
        <time>2026-05-13T13:36:50Z</time>
      </trkpt>
      <trkpt lat="48.70312" lon="7.3416">
        <ele>243</ele>
        <time>2026-05-13T13:36:54Z</time>
      </trkpt>
      <trkpt lat="48.70289" lon="7.34126">
        <ele>245</ele>
        <time>2026-05-13T13:37:00Z</time>
      </trkpt>
      <trkpt lat="48.7028" lon="7.34104">
        <ele>246</ele>
        <time>2026-05-13T13:37:03Z</time>
      </trkpt>
      <trkpt lat="48.70269" lon="7.34074">
        <ele>248</ele>
        <time>2026-05-13T13:37:07Z</time>
      </trkpt>
      <trkpt lat="48.70265" lon="7.34049">
        <ele>250</ele>
        <time>2026-05-13T13:37:10Z</time>
      </trkpt>
      <trkpt lat="48.7026" lon="7.34004">
        <ele>253</ele>
        <time>2026-05-13T13:37:16Z</time>
      </trkpt>
      <trkpt lat="48.70266" lon="7.33988">
        <ele>254</ele>
        <time>2026-05-13T13:37:18Z</time>
      </trkpt>
      <trkpt lat="48.70268" lon="7.33976">
        <ele>255</ele>
        <time>2026-05-13T13:37:19Z</time>
      </trkpt>
      <trkpt lat="48.70267" lon="7.33961">
        <ele>256</ele>
        <time>2026-05-13T13:37:21Z</time>
      </trkpt>
      <trkpt lat="48.70263" lon="7.33947">
        <ele>257</ele>
        <time>2026-05-13T13:37:23Z</time>
      </trkpt>
      <trkpt lat="48.7026" lon="7.3394">
        <ele>258</ele>
        <time>2026-05-13T13:37:24Z</time>
      </trkpt>
      <trkpt lat="48.70255" lon="7.33933">
        <ele>258</ele>
        <time>2026-05-13T13:37:25Z</time>
      </trkpt>
      <trkpt lat="48.70228" lon="7.33911">
        <ele>260</ele>
        <time>2026-05-13T13:37:30Z</time>
      </trkpt>
      <trkpt lat="48.70221" lon="7.339">
        <ele>261</ele>
        <time>2026-05-13T13:37:32Z</time>
      </trkpt>
      <trkpt lat="48.70182" lon="7.33789">
        <ele>271</ele>
        <time>2026-05-13T13:37:47Z</time>
      </trkpt>
      <trkpt lat="48.70167" lon="7.33728">
        <ele>275</ele>
        <time>2026-05-13T13:37:55Z</time>
      </trkpt>
      <trkpt lat="48.70163" lon="7.33704">
        <ele>276</ele>
        <time>2026-05-13T13:37:58Z</time>
      </trkpt>
      <trkpt lat="48.70161" lon="7.33662">
        <ele>278</ele>
        <time>2026-05-13T13:38:03Z</time>
      </trkpt>
      <trkpt lat="48.70153" lon="7.33596">
        <ele>284</ele>
        <time>2026-05-13T13:38:10Z</time>
      </trkpt>
      <trkpt lat="48.70148" lon="7.33538">
        <ele>290</ele>
        <time>2026-05-13T13:38:17Z</time>
      </trkpt>
      <trkpt lat="48.70048" lon="7.33518">
        <ele>298</ele>
        <time>2026-05-13T13:38:35Z</time>
      </trkpt>
      <trkpt lat="48.69978" lon="7.33509">
        <ele>297</ele>
        <time>2026-05-13T13:38:48Z</time>
      </trkpt>
      <trkpt lat="48.69949" lon="7.33499">
        <ele>297</ele>
        <time>2026-05-13T13:38:53Z</time>
      </trkpt>
      <trkpt lat="48.69911" lon="7.33475">
        <ele>298</ele>
        <time>2026-05-13T13:39:00Z</time>
      </trkpt>
      <trkpt lat="48.69887" lon="7.33457">
        <ele>297</ele>
        <time>2026-05-13T13:39:05Z</time>
      </trkpt>
      <trkpt lat="48.69866" lon="7.33443">
        <ele>296</ele>
        <time>2026-05-13T13:39:09Z</time>
      </trkpt>
      <trkpt lat="48.6981" lon="7.33412">
        <ele>292</ele>
        <time>2026-05-13T13:39:20Z</time>
      </trkpt>
      <trkpt lat="48.69768" lon="7.33375">
        <ele>291</ele>
        <time>2026-05-13T13:39:28Z</time>
      </trkpt>
      <trkpt lat="48.69713" lon="7.33296">
        <ele>291</ele>
        <time>2026-05-13T13:39:42Z</time>
      </trkpt>
      <trkpt lat="48.6961" lon="7.33186">
        <ele>287</ele>
        <time>2026-05-13T13:40:04Z</time>
      </trkpt>
      <trkpt lat="48.69574" lon="7.33158">
        <ele>286</ele>
        <time>2026-05-13T13:40:12Z</time>
      </trkpt>
      <trkpt lat="48.69539" lon="7.33147">
        <ele>281</ele>
        <time>2026-05-13T13:40:18Z</time>
      </trkpt>
      <trkpt lat="48.69448" lon="7.33123">
        <ele>277</ele>
        <time>2026-05-13T13:40:34Z</time>
      </trkpt>
      <trkpt lat="48.69412" lon="7.33123">
        <ele>276</ele>
        <time>2026-05-13T13:40:41Z</time>
      </trkpt>
      <trkpt lat="48.69369" lon="7.3312">
        <ele>279</ele>
        <time>2026-05-13T13:40:48Z</time>
      </trkpt>
      <trkpt lat="48.69336" lon="7.33113">
        <ele>282</ele>
        <time>2026-05-13T13:40:54Z</time>
      </trkpt>
      <trkpt lat="48.69302" lon="7.33103">
        <ele>283</ele>
        <time>2026-05-13T13:41:01Z</time>
      </trkpt>
      <trkpt lat="48.69285" lon="7.33097">
        <ele>284</ele>
        <time>2026-05-13T13:41:04Z</time>
      </trkpt>
      <trkpt lat="48.69253" lon="7.33082">
        <ele>285</ele>
        <time>2026-05-13T13:41:10Z</time>
      </trkpt>
      <trkpt lat="48.69232" lon="7.33059">
        <ele>288</ele>
        <time>2026-05-13T13:41:14Z</time>
      </trkpt>
      <trkpt lat="48.69213" lon="7.33039">
        <ele>290</ele>
        <time>2026-05-13T13:41:18Z</time>
      </trkpt>
      <trkpt lat="48.69205" lon="7.33037">
        <ele>289</ele>
        <time>2026-05-13T13:41:20Z</time>
      </trkpt>
      <trkpt lat="48.69198" lon="7.33039">
        <ele>289</ele>
        <time>2026-05-13T13:41:21Z</time>
      </trkpt>
      <trkpt lat="48.69192" lon="7.33018">
        <ele>290</ele>
        <time>2026-05-13T13:41:24Z</time>
      </trkpt>
      <trkpt lat="48.69173" lon="7.32984">
        <ele>294</ele>
        <time>2026-05-13T13:41:29Z</time>
      </trkpt>
      <trkpt lat="48.69162" lon="7.32966">
        <ele>296</ele>
        <time>2026-05-13T13:41:32Z</time>
      </trkpt>
      <trkpt lat="48.69155" lon="7.32954">
        <ele>298</ele>
        <time>2026-05-13T13:41:34Z</time>
      </trkpt>
      <trkpt lat="48.69109" lon="7.32892">
        <ele>302</ele>
        <time>2026-05-13T13:41:45Z</time>
      </trkpt>
      <trkpt lat="48.69069" lon="7.32847">
        <ele>303</ele>
        <time>2026-05-13T13:41:54Z</time>
      </trkpt>
      <trkpt lat="48.69042" lon="7.3282">
        <ele>303</ele>
        <time>2026-05-13T13:41:59Z</time>
      </trkpt>
      <trkpt lat="48.68983" lon="7.32762">
        <ele>300</ele>
        <time>2026-05-13T13:42:12Z</time>
      </trkpt>
      <trkpt lat="48.68948" lon="7.32732">
        <ele>301</ele>
        <time>2026-05-13T13:42:19Z</time>
      </trkpt>
      <trkpt lat="48.68916" lon="7.32704">
        <ele>301</ele>
        <time>2026-05-13T13:42:26Z</time>
      </trkpt>
      <trkpt lat="48.68904" lon="7.32689">
        <ele>302</ele>
        <time>2026-05-13T13:42:28Z</time>
      </trkpt>
      <trkpt lat="48.68893" lon="7.32707">
        <ele>298</ele>
        <time>2026-05-13T13:42:31Z</time>
      </trkpt>
      <trkpt lat="48.68875" lon="7.32736">
        <ele>292</ele>
        <time>2026-05-13T13:42:36Z</time>
      </trkpt>
      <trkpt lat="48.68863" lon="7.32752">
        <ele>289</ele>
        <time>2026-05-13T13:42:39Z</time>
      </trkpt>
      <trkpt lat="48.68841" lon="7.32773">
        <ele>286</ele>
        <time>2026-05-13T13:42:43Z</time>
      </trkpt>
      <trkpt lat="48.68831" lon="7.32785">
        <ele>285</ele>
        <time>2026-05-13T13:42:46Z</time>
      </trkpt>
      <trkpt lat="48.68822" lon="7.328">
        <ele>284</ele>
        <time>2026-05-13T13:42:48Z</time>
      </trkpt>
      <trkpt lat="48.68767" lon="7.32909">
        <ele>279</ele>
        <time>2026-05-13T13:43:04Z</time>
      </trkpt>
      <trkpt lat="48.68749" lon="7.32947">
        <ele>277</ele>
        <time>2026-05-13T13:43:10Z</time>
      </trkpt>
      <trkpt lat="48.68738" lon="7.32971">
        <ele>274</ele>
        <time>2026-05-13T13:43:13Z</time>
      </trkpt>
      <trkpt lat="48.68736" lon="7.32983">
        <ele>273</ele>
        <time>2026-05-13T13:43:14Z</time>
      </trkpt>
      <trkpt lat="48.68735" lon="7.33">
        <ele>272</ele>
        <time>2026-05-13T13:43:16Z</time>
      </trkpt>
      <trkpt lat="48.68741" lon="7.33038">
        <ele>271</ele>
        <time>2026-05-13T13:43:21Z</time>
      </trkpt>
      <trkpt lat="48.68744" lon="7.33049">
        <ele>270</ele>
        <time>2026-05-13T13:43:22Z</time>
      </trkpt>
      <trkpt lat="48.68766" lon="7.33082">
        <ele>269</ele>
        <time>2026-05-13T13:43:28Z</time>
      </trkpt>
      <trkpt lat="48.68775" lon="7.331">
        <ele>268</ele>
        <time>2026-05-13T13:43:31Z</time>
      </trkpt>
      <trkpt lat="48.6877" lon="7.33105">
        <ele>268</ele>
        <time>2026-05-13T13:43:32Z</time>
      </trkpt>
      <trkpt lat="48.68748" lon="7.33119">
        <ele>268</ele>
        <time>2026-05-13T13:43:36Z</time>
      </trkpt>
      <trkpt lat="48.68712" lon="7.3315">
        <ele>265</ele>
        <time>2026-05-13T13:43:43Z</time>
      </trkpt>
      <trkpt lat="48.68672" lon="7.33191">
        <ele>263</ele>
        <time>2026-05-13T13:43:52Z</time>
      </trkpt>
      <trkpt lat="48.68634" lon="7.33225">
        <ele>259</ele>
        <time>2026-05-13T13:44:00Z</time>
      </trkpt>
      <trkpt lat="48.68606" lon="7.33251">
        <ele>256</ele>
        <time>2026-05-13T13:44:06Z</time>
      </trkpt>
      <trkpt lat="48.68586" lon="7.33282">
        <ele>254</ele>
        <time>2026-05-13T13:44:11Z</time>
      </trkpt>
      <trkpt lat="48.68574" lon="7.33306">
        <ele>253</ele>
        <time>2026-05-13T13:44:14Z</time>
      </trkpt>
      <trkpt lat="48.68564" lon="7.33331">
        <ele>253</ele>
        <time>2026-05-13T13:44:18Z</time>
      </trkpt>
      <trkpt lat="48.68554" lon="7.33343">
        <ele>252</ele>
        <time>2026-05-13T13:44:20Z</time>
      </trkpt>
      <trkpt lat="48.68514" lon="7.3335">
        <ele>251</ele>
        <time>2026-05-13T13:44:27Z</time>
      </trkpt>
      <trkpt lat="48.68497" lon="7.33353">
        <ele>251</ele>
        <time>2026-05-13T13:44:30Z</time>
      </trkpt>
      <trkpt lat="48.6847" lon="7.33356">
        <ele>251</ele>
        <time>2026-05-13T13:44:35Z</time>
      </trkpt>
      <trkpt lat="48.68438" lon="7.33353">
        <ele>252</ele>
        <time>2026-05-13T13:44:41Z</time>
      </trkpt>
      <trkpt lat="48.68401" lon="7.33351">
        <ele>254</ele>
        <time>2026-05-13T13:44:47Z</time>
      </trkpt>
      <trkpt lat="48.68393" lon="7.33353">
        <ele>255</ele>
        <time>2026-05-13T13:44:49Z</time>
      </trkpt>
      <trkpt lat="48.68378" lon="7.33359">
        <ele>256</ele>
        <time>2026-05-13T13:44:51Z</time>
      </trkpt>
      <trkpt lat="48.6837" lon="7.33367">
        <ele>256</ele>
        <time>2026-05-13T13:44:53Z</time>
      </trkpt>
      <trkpt lat="48.6835" lon="7.33391">
        <ele>255</ele>
        <time>2026-05-13T13:44:58Z</time>
      </trkpt>
      <trkpt lat="48.68338" lon="7.33408">
        <ele>253</ele>
        <time>2026-05-13T13:45:01Z</time>
      </trkpt>
      <trkpt lat="48.68357" lon="7.33432">
        <ele>253</ele>
        <time>2026-05-13T13:45:05Z</time>
      </trkpt>
      <trkpt lat="48.68372" lon="7.33446">
        <ele>254</ele>
        <time>2026-05-13T13:45:08Z</time>
      </trkpt>
      <trkpt lat="48.68381" lon="7.33451">
        <ele>255</ele>
        <time>2026-05-13T13:45:10Z</time>
      </trkpt>
      <trkpt lat="48.68388" lon="7.33452">
        <ele>255</ele>
        <time>2026-05-13T13:45:11Z</time>
      </trkpt>
      <trkpt lat="48.68377" lon="7.33461">
        <ele>255</ele>
        <time>2026-05-13T13:45:13Z</time>
      </trkpt>
      <trkpt lat="48.68378" lon="7.33469">
        <ele>256</ele>
        <time>2026-05-13T13:45:14Z</time>
      </trkpt>
      <trkpt lat="48.68389" lon="7.33472">
        <ele>257</ele>
        <time>2026-05-13T13:45:16Z</time>
      </trkpt>
      <trkpt lat="48.68411" lon="7.33474">
        <ele>259</ele>
        <time>2026-05-13T13:45:20Z</time>
      </trkpt>
      <trkpt lat="48.68433" lon="7.33494">
        <ele>261</ele>
        <time>2026-05-13T13:45:25Z</time>
      </trkpt>
      <trkpt lat="48.68458" lon="7.33547">
        <ele>267</ele>
        <time>2026-05-13T13:45:32Z</time>
      </trkpt>
      <trkpt lat="48.68481" lon="7.33625">
        <ele>275</ele>
        <time>2026-05-13T13:45:42Z</time>
      </trkpt>
      <trkpt lat="48.6851" lon="7.33691">
        <ele>279</ele>
        <time>2026-05-13T13:45:52Z</time>
      </trkpt>
      <trkpt lat="48.6852" lon="7.33739">
        <ele>283</ele>
        <time>2026-05-13T13:45:58Z</time>
      </trkpt>
      <trkpt lat="48.68559" lon="7.33815">
        <ele>282</ele>
        <time>2026-05-13T13:46:09Z</time>
      </trkpt>
      <trkpt lat="48.68584" lon="7.3388">
        <ele>282</ele>
        <time>2026-05-13T13:46:18Z</time>
      </trkpt>
      <trkpt lat="48.68599" lon="7.33918">
        <ele>285</ele>
        <time>2026-05-13T13:46:23Z</time>
      </trkpt>
      <trkpt lat="48.68621" lon="7.33998">
        <ele>292</ele>
        <time>2026-05-13T13:46:33Z</time>
      </trkpt>
      <trkpt lat="48.68643" lon="7.34077">
        <ele>295</ele>
        <time>2026-05-13T13:46:43Z</time>
      </trkpt>
      <trkpt lat="48.68656" lon="7.34191">
        <ele>299</ele>
        <time>2026-05-13T13:46:57Z</time>
      </trkpt>
      <trkpt lat="48.68663" lon="7.34238">
        <ele>301</ele>
        <time>2026-05-13T13:47:03Z</time>
      </trkpt>
      <trkpt lat="48.6867" lon="7.34255">
        <ele>302</ele>
        <time>2026-05-13T13:47:05Z</time>
      </trkpt>
      <trkpt lat="48.68703" lon="7.34327">
        <ele>312</ele>
        <time>2026-05-13T13:47:15Z</time>
      </trkpt>
      <trkpt lat="48.68623" lon="7.34243">
        <ele>305</ele>
        <time>2026-05-13T13:47:32Z</time>
      </trkpt>
      <trkpt lat="48.6848" lon="7.34284">
        <ele>331</ele>
        <time>2026-05-13T13:47:58Z</time>
      </trkpt>
      <trkpt lat="48.68412" lon="7.34286">
        <ele>340</ele>
        <time>2026-05-13T13:48:10Z</time>
      </trkpt>
      <trkpt lat="48.68326" lon="7.34286">
        <ele>345</ele>
        <time>2026-05-13T13:48:26Z</time>
      </trkpt>
      <trkpt lat="48.6815" lon="7.3429">
        <ele>347</ele>
        <time>2026-05-13T13:48:57Z</time>
      </trkpt>
      <trkpt lat="48.6813" lon="7.34277">
        <ele>347</ele>
        <time>2026-05-13T13:49:01Z</time>
      </trkpt>
      <trkpt lat="48.68107" lon="7.3424">
        <ele>346</ele>
        <time>2026-05-13T13:49:07Z</time>
      </trkpt>
      <trkpt lat="48.68053" lon="7.34243">
        <ele>346</ele>
        <time>2026-05-13T13:49:17Z</time>
      </trkpt>
      <trkpt lat="48.67986" lon="7.34256">
        <ele>348</ele>
        <time>2026-05-13T13:49:29Z</time>
      </trkpt>
      <trkpt lat="48.67933" lon="7.3426">
        <ele>346</ele>
        <time>2026-05-13T13:49:38Z</time>
      </trkpt>
      <trkpt lat="48.67838" lon="7.34288">
        <ele>345</ele>
        <time>2026-05-13T13:49:55Z</time>
      </trkpt>
      <trkpt lat="48.67728" lon="7.34328">
        <ele>343</ele>
        <time>2026-05-13T13:50:15Z</time>
      </trkpt>
      <trkpt lat="48.67708" lon="7.34335">
        <ele>341</ele>
        <time>2026-05-13T13:50:19Z</time>
      </trkpt>
      <trkpt lat="48.67655" lon="7.34354">
        <ele>338</ele>
        <time>2026-05-13T13:50:29Z</time>
      </trkpt>
      <trkpt lat="48.6763" lon="7.34362">
        <ele>338</ele>
        <time>2026-05-13T13:50:33Z</time>
      </trkpt>
      <trkpt lat="48.67566" lon="7.34364">
        <ele>335</ele>
        <time>2026-05-13T13:50:45Z</time>
      </trkpt>
      <trkpt lat="48.67494" lon="7.34339">
        <ele>333</ele>
        <time>2026-05-13T13:50:58Z</time>
      </trkpt>
      <trkpt lat="48.67421" lon="7.34273">
        <ele>328</ele>
        <time>2026-05-13T13:51:13Z</time>
      </trkpt>
      <trkpt lat="48.67381" lon="7.34243">
        <ele>326</ele>
        <time>2026-05-13T13:51:21Z</time>
      </trkpt>
      <trkpt lat="48.67306" lon="7.34197">
        <ele>324</ele>
        <time>2026-05-13T13:51:35Z</time>
      </trkpt>
      <trkpt lat="48.67237" lon="7.34159">
        <ele>322</ele>
        <time>2026-05-13T13:51:48Z</time>
      </trkpt>
      <trkpt lat="48.67194" lon="7.34139">
        <ele>321</ele>
        <time>2026-05-13T13:51:56Z</time>
      </trkpt>
      <trkpt lat="48.67073" lon="7.34082">
        <ele>316</ele>
        <time>2026-05-13T13:52:19Z</time>
      </trkpt>
      <trkpt lat="48.67031" lon="7.34055">
        <ele>313</ele>
        <time>2026-05-13T13:52:27Z</time>
      </trkpt>
      <trkpt lat="48.67013" lon="7.34045">
        <ele>312</ele>
        <time>2026-05-13T13:52:30Z</time>
      </trkpt>
      <trkpt lat="48.67003" lon="7.3404">
        <ele>312</ele>
        <time>2026-05-13T13:52:32Z</time>
      </trkpt>
      <trkpt lat="48.66964" lon="7.34026">
        <ele>310</ele>
        <time>2026-05-13T13:52:39Z</time>
      </trkpt>
      <trkpt lat="48.66992" lon="7.34017">
        <ele>308</ele>
        <time>2026-05-13T13:52:44Z</time>
      </trkpt>
      <trkpt lat="48.67015" lon="7.34013">
        <ele>307</ele>
        <time>2026-05-13T13:52:49Z</time>
      </trkpt>
      <trkpt lat="48.67036" lon="7.34006">
        <ele>305</ele>
        <time>2026-05-13T13:52:52Z</time>
      </trkpt>
      <trkpt lat="48.67074" lon="7.33989">
        <ele>300</ele>
        <time>2026-05-13T13:52:59Z</time>
      </trkpt>
      <trkpt lat="48.67175" lon="7.33973">
        <ele>295</ele>
        <time>2026-05-13T13:53:18Z</time>
      </trkpt>
      <trkpt lat="48.67207" lon="7.33967">
        <ele>291</ele>
        <time>2026-05-13T13:53:23Z</time>
      </trkpt>
      <trkpt lat="48.67237" lon="7.33969">
        <ele>289</ele>
        <time>2026-05-13T13:53:29Z</time>
      </trkpt>
      <trkpt lat="48.67262" lon="7.33977">
        <ele>288</ele>
        <time>2026-05-13T13:53:33Z</time>
      </trkpt>
      <trkpt lat="48.67271" lon="7.33981">
        <ele>288</ele>
        <time>2026-05-13T13:53:35Z</time>
      </trkpt>
      <trkpt lat="48.67282" lon="7.33978">
        <ele>288</ele>
        <time>2026-05-13T13:53:37Z</time>
      </trkpt>
      <trkpt lat="48.67337" lon="7.3393">
        <ele>282</ele>
        <time>2026-05-13T13:53:48Z</time>
      </trkpt>
      <trkpt lat="48.67343" lon="7.33927">
        <ele>282</ele>
        <time>2026-05-13T13:53:49Z</time>
      </trkpt>
      <trkpt lat="48.67355" lon="7.33926">
        <ele>282</ele>
        <time>2026-05-13T13:53:51Z</time>
      </trkpt>
      <trkpt lat="48.67358" lon="7.33926">
        <ele>282</ele>
        <time>2026-05-13T13:53:52Z</time>
      </trkpt>
      <trkpt lat="48.67371" lon="7.33931">
        <ele>282</ele>
        <time>2026-05-13T13:53:54Z</time>
      </trkpt>
      <trkpt lat="48.67384" lon="7.33933">
        <ele>283</ele>
        <time>2026-05-13T13:53:57Z</time>
      </trkpt>
      <trkpt lat="48.67391" lon="7.33931">
        <ele>283</ele>
        <time>2026-05-13T13:53:58Z</time>
      </trkpt>
      <trkpt lat="48.67401" lon="7.33921">
        <ele>282</ele>
        <time>2026-05-13T13:54:00Z</time>
      </trkpt>
      <trkpt lat="48.67408" lon="7.33906">
        <ele>282</ele>
        <time>2026-05-13T13:54:02Z</time>
      </trkpt>
      <trkpt lat="48.67436" lon="7.33863">
        <ele>283</ele>
        <time>2026-05-13T13:54:09Z</time>
      </trkpt>
      <trkpt lat="48.67441" lon="7.3386">
        <ele>283</ele>
        <time>2026-05-13T13:54:10Z</time>
      </trkpt>
      <trkpt lat="48.67453" lon="7.33856">
        <ele>284</ele>
        <time>2026-05-13T13:54:12Z</time>
      </trkpt>
      <trkpt lat="48.6747" lon="7.33837">
        <ele>285</ele>
        <time>2026-05-13T13:54:16Z</time>
      </trkpt>
      <trkpt lat="48.67493" lon="7.33799">
        <ele>285</ele>
        <time>2026-05-13T13:54:22Z</time>
      </trkpt>
      <trkpt lat="48.67529" lon="7.33781">
        <ele>285</ele>
        <time>2026-05-13T13:54:29Z</time>
      </trkpt>
      <trkpt lat="48.67555" lon="7.33771">
        <ele>286</ele>
        <time>2026-05-13T13:54:34Z</time>
      </trkpt>
      <trkpt lat="48.67678" lon="7.33629">
        <ele>294</ele>
        <time>2026-05-13T13:55:01Z</time>
      </trkpt>
      <trkpt lat="48.67685" lon="7.33615">
        <ele>295</ele>
        <time>2026-05-13T13:55:03Z</time>
      </trkpt>
      <trkpt lat="48.67687" lon="7.33612">
        <ele>295</ele>
        <time>2026-05-13T13:55:04Z</time>
      </trkpt>
      <trkpt lat="48.67694" lon="7.33601">
        <ele>295</ele>
        <time>2026-05-13T13:55:06Z</time>
      </trkpt>
      <trkpt lat="48.6771" lon="7.33596">
        <ele>294</ele>
        <time>2026-05-13T13:55:09Z</time>
      </trkpt>
      <trkpt lat="48.67743" lon="7.33577">
        <ele>293</ele>
        <time>2026-05-13T13:55:15Z</time>
      </trkpt>
      <trkpt lat="48.6777" lon="7.33566">
        <ele>291</ele>
        <time>2026-05-13T13:55:20Z</time>
      </trkpt>
      <trkpt lat="48.6779" lon="7.33553">
        <ele>289</ele>
        <time>2026-05-13T13:55:24Z</time>
      </trkpt>
      <trkpt lat="48.678" lon="7.33543">
        <ele>288</ele>
        <time>2026-05-13T13:55:26Z</time>
      </trkpt>
      <trkpt lat="48.67809" lon="7.33523">
        <ele>288</ele>
        <time>2026-05-13T13:55:29Z</time>
      </trkpt>
      <trkpt lat="48.67818" lon="7.33509">
        <ele>288</ele>
        <time>2026-05-13T13:55:31Z</time>
      </trkpt>
      <trkpt lat="48.67807" lon="7.33463">
        <ele>291</ele>
        <time>2026-05-13T13:55:37Z</time>
      </trkpt>
      <trkpt lat="48.67796" lon="7.33424">
        <ele>294</ele>
        <time>2026-05-13T13:55:42Z</time>
      </trkpt>
      <trkpt lat="48.67769" lon="7.33349">
        <ele>296</ele>
        <time>2026-05-13T13:55:52Z</time>
      </trkpt>
      <trkpt lat="48.67761" lon="7.33323">
        <ele>296</ele>
        <time>2026-05-13T13:55:55Z</time>
      </trkpt>
      <trkpt lat="48.67751" lon="7.33287">
        <ele>298</ele>
        <time>2026-05-13T13:56:00Z</time>
      </trkpt>
      <trkpt lat="48.67738" lon="7.33219">
        <ele>301</ele>
        <time>2026-05-13T13:56:08Z</time>
      </trkpt>
      <trkpt lat="48.67721" lon="7.33121">
        <ele>302</ele>
        <time>2026-05-13T13:56:20Z</time>
      </trkpt>
      <trkpt lat="48.67707" lon="7.33028">
        <ele>305</ele>
        <time>2026-05-13T13:56:31Z</time>
      </trkpt>
      <trkpt lat="48.6769" lon="7.32929">
        <ele>308</ele>
        <time>2026-05-13T13:56:43Z</time>
      </trkpt>
      <trkpt lat="48.67692" lon="7.32917">
        <ele>308</ele>
        <time>2026-05-13T13:56:45Z</time>
      </trkpt>
      <trkpt lat="48.67697" lon="7.32907">
        <ele>308</ele>
        <time>2026-05-13T13:56:46Z</time>
      </trkpt>
      <trkpt lat="48.67685" lon="7.32914">
        <ele>308</ele>
        <time>2026-05-13T13:56:48Z</time>
      </trkpt>
      <trkpt lat="48.67659" lon="7.3292">
        <ele>309</ele>
        <time>2026-05-13T13:56:53Z</time>
      </trkpt>
      <trkpt lat="48.67615" lon="7.32934">
        <ele>308</ele>
        <time>2026-05-13T13:57:01Z</time>
      </trkpt>
      <trkpt lat="48.67608" lon="7.32928">
        <ele>308</ele>
        <time>2026-05-13T13:57:02Z</time>
      </trkpt>
      <trkpt lat="48.67603" lon="7.32906">
        <ele>309</ele>
        <time>2026-05-13T13:57:05Z</time>
      </trkpt>
      <trkpt lat="48.67561" lon="7.3276">
        <ele>316</ele>
        <time>2026-05-13T13:57:24Z</time>
      </trkpt>
      <trkpt lat="48.67542" lon="7.32686">
        <ele>316</ele>
        <time>2026-05-13T13:57:33Z</time>
      </trkpt>
      <trkpt lat="48.67531" lon="7.32639">
        <ele>315</ele>
        <time>2026-05-13T13:57:39Z</time>
      </trkpt>
      <trkpt lat="48.67522" lon="7.32585">
        <ele>314</ele>
        <time>2026-05-13T13:57:46Z</time>
      </trkpt>
      <trkpt lat="48.67501" lon="7.32456">
        <ele>316</ele>
        <time>2026-05-13T13:58:01Z</time>
      </trkpt>
      <trkpt lat="48.67495" lon="7.3241">
        <ele>317</ele>
        <time>2026-05-13T13:58:07Z</time>
      </trkpt>
      <trkpt lat="48.67487" lon="7.32367">
        <ele>317</ele>
        <time>2026-05-13T13:58:12Z</time>
      </trkpt>
      <trkpt lat="48.67469" lon="7.32302">
        <ele>316</ele>
        <time>2026-05-13T13:58:20Z</time>
      </trkpt>
      <trkpt lat="48.67462" lon="7.32274">
        <ele>316</ele>
        <time>2026-05-13T13:58:24Z</time>
      </trkpt>
      <trkpt lat="48.67459" lon="7.32255">
        <ele>316</ele>
        <time>2026-05-13T13:58:26Z</time>
      </trkpt>
      <trkpt lat="48.67429" lon="7.32198">
        <ele>318</ele>
        <time>2026-05-13T13:58:35Z</time>
      </trkpt>
      <trkpt lat="48.67421" lon="7.32179">
        <ele>319</ele>
        <time>2026-05-13T13:58:37Z</time>
      </trkpt>
      <trkpt lat="48.6741" lon="7.32105">
        <ele>321</ele>
        <time>2026-05-13T13:58:46Z</time>
      </trkpt>
      <trkpt lat="48.67406" lon="7.32064">
        <ele>322</ele>
        <time>2026-05-13T13:58:51Z</time>
      </trkpt>
      <trkpt lat="48.67405" lon="7.32024">
        <ele>322</ele>
        <time>2026-05-13T13:58:56Z</time>
      </trkpt>
      <trkpt lat="48.67406" lon="7.32">
        <ele>323</ele>
        <time>2026-05-13T13:58:59Z</time>
      </trkpt>
      <trkpt lat="48.67383" lon="7.31933">
        <ele>323</ele>
        <time>2026-05-13T13:59:07Z</time>
      </trkpt>
      <trkpt lat="48.67377" lon="7.31924">
        <ele>323</ele>
        <time>2026-05-13T13:59:09Z</time>
      </trkpt>
      <trkpt lat="48.67385" lon="7.31872">
        <ele>325</ele>
        <time>2026-05-13T13:59:15Z</time>
      </trkpt>
      <trkpt lat="48.67391" lon="7.31815">
        <ele>327</ele>
        <time>2026-05-13T13:59:22Z</time>
      </trkpt>
      <trkpt lat="48.67393" lon="7.31794">
        <ele>328</ele>
        <time>2026-05-13T13:59:25Z</time>
      </trkpt>
      <trkpt lat="48.67404" lon="7.31601">
        <ele>347</ele>
        <time>2026-05-13T13:59:47Z</time>
      </trkpt>
      <trkpt lat="48.67407" lon="7.31589">
        <ele>348</ele>
        <time>2026-05-13T13:59:49Z</time>
      </trkpt>
      <trkpt lat="48.6741" lon="7.3159">
        <ele>348</ele>
        <time>2026-05-13T13:59:49Z</time>
      </trkpt>
      <trkpt lat="48.67407" lon="7.31589">
        <ele>348</ele>
        <time>2026-05-13T13:59:50Z</time>
      </trkpt>
      <trkpt lat="48.67392" lon="7.3158">
        <ele>348</ele>
        <time>2026-05-13T13:59:53Z</time>
      </trkpt>
      <trkpt lat="48.67357" lon="7.31552">
        <ele>349</ele>
        <time>2026-05-13T14:00:00Z</time>
      </trkpt>
      <trkpt lat="48.67325" lon="7.31522">
        <ele>348</ele>
        <time>2026-05-13T14:00:07Z</time>
      </trkpt>
      <trkpt lat="48.67311" lon="7.31504">
        <ele>347</ele>
        <time>2026-05-13T14:00:10Z</time>
      </trkpt>
      <trkpt lat="48.67302" lon="7.31486">
        <ele>347</ele>
        <time>2026-05-13T14:00:12Z</time>
      </trkpt>
      <trkpt lat="48.6729" lon="7.31426">
        <ele>349</ele>
        <time>2026-05-13T14:00:20Z</time>
      </trkpt>
      <trkpt lat="48.67279" lon="7.31369">
        <ele>349</ele>
        <time>2026-05-13T14:00:27Z</time>
      </trkpt>
      <trkpt lat="48.67266" lon="7.31261">
        <ele>351</ele>
        <time>2026-05-13T14:00:40Z</time>
      </trkpt>
      <trkpt lat="48.67265" lon="7.31216">
        <ele>352</ele>
        <time>2026-05-13T14:00:45Z</time>
      </trkpt>
      <trkpt lat="48.67268" lon="7.31103">
        <ele>358</ele>
        <time>2026-05-13T14:00:58Z</time>
      </trkpt>
      <trkpt lat="48.67266" lon="7.31074">
        <ele>358</ele>
        <time>2026-05-13T14:01:02Z</time>
      </trkpt>
      <trkpt lat="48.67264" lon="7.31059">
        <ele>358</ele>
        <time>2026-05-13T14:01:03Z</time>
      </trkpt>
      <trkpt lat="48.67259" lon="7.31052">
        <ele>357</ele>
        <time>2026-05-13T14:01:05Z</time>
      </trkpt>
      <trkpt lat="48.67259" lon="7.3103">
        <ele>358</ele>
        <time>2026-05-13T14:01:07Z</time>
      </trkpt>
      <trkpt lat="48.67255" lon="7.3101">
        <ele>357</ele>
        <time>2026-05-13T14:01:10Z</time>
      </trkpt>
      <trkpt lat="48.67245" lon="7.3098">
        <ele>358</ele>
        <time>2026-05-13T14:01:14Z</time>
      </trkpt>
      <trkpt lat="48.67232" lon="7.30942">
        <ele>364</ele>
        <time>2026-05-13T14:01:19Z</time>
      </trkpt>
      <trkpt lat="48.672" lon="7.30841">
        <ele>371</ele>
        <time>2026-05-13T14:01:32Z</time>
      </trkpt>
      <trkpt lat="48.67191" lon="7.30805">
        <ele>371</ele>
        <time>2026-05-13T14:01:36Z</time>
      </trkpt>
      <trkpt lat="48.67175" lon="7.30672">
        <ele>371</ele>
        <time>2026-05-13T14:01:52Z</time>
      </trkpt>
      <trkpt lat="48.6717" lon="7.30648">
        <ele>371</ele>
        <time>2026-05-13T14:01:55Z</time>
      </trkpt>
      <trkpt lat="48.67148" lon="7.30592">
        <ele>375</ele>
        <time>2026-05-13T14:02:03Z</time>
      </trkpt>
      <trkpt lat="48.67125" lon="7.30537">
        <ele>377</ele>
        <time>2026-05-13T14:02:11Z</time>
      </trkpt>
      <trkpt lat="48.67081" lon="7.30466">
        <ele>375</ele>
        <time>2026-05-13T14:02:22Z</time>
      </trkpt>
      <trkpt lat="48.66932" lon="7.30239">
        <ele>386</ele>
        <time>2026-05-13T14:03:00Z</time>
      </trkpt>
      <trkpt lat="48.66924" lon="7.30214">
        <ele>384</ele>
        <time>2026-05-13T14:03:03Z</time>
      </trkpt>
      <trkpt lat="48.66923" lon="7.30201">
        <ele>384</ele>
        <time>2026-05-13T14:03:04Z</time>
      </trkpt>
      <trkpt lat="48.66924" lon="7.30191">
        <ele>384</ele>
        <time>2026-05-13T14:03:06Z</time>
      </trkpt>
      <trkpt lat="48.66925" lon="7.30189">
        <ele>384</ele>
        <time>2026-05-13T14:03:06Z</time>
      </trkpt>
      <trkpt lat="48.66932" lon="7.30178">
        <ele>386</ele>
        <time>2026-05-13T14:03:08Z</time>
      </trkpt>
      <trkpt lat="48.66939" lon="7.30174">
        <ele>388</ele>
        <time>2026-05-13T14:03:09Z</time>
      </trkpt>
      <trkpt lat="48.66933" lon="7.30153">
        <ele>388</ele>
        <time>2026-05-13T14:03:12Z</time>
      </trkpt>
      <trkpt lat="48.66923" lon="7.30141">
        <ele>387</ele>
        <time>2026-05-13T14:03:14Z</time>
      </trkpt>
      <trkpt lat="48.66887" lon="7.30142">
        <ele>388</ele>
        <time>2026-05-13T14:03:20Z</time>
      </trkpt>
      <trkpt lat="48.6685" lon="7.30138">
        <ele>393</ele>
        <time>2026-05-13T14:03:27Z</time>
      </trkpt>
      <trkpt lat="48.66775" lon="7.30093">
        <ele>407</ele>
        <time>2026-05-13T14:03:41Z</time>
      </trkpt>
      <trkpt lat="48.66726" lon="7.30072">
        <ele>415</ele>
        <time>2026-05-13T14:03:50Z</time>
      </trkpt>
      <trkpt lat="48.66683" lon="7.30061">
        <ele>422</ele>
        <time>2026-05-13T14:03:58Z</time>
      </trkpt>
      <trkpt lat="48.66643" lon="7.30067">
        <ele>422</ele>
        <time>2026-05-13T14:04:05Z</time>
      </trkpt>
      <trkpt lat="48.66541" lon="7.3005">
        <ele>428</ele>
        <time>2026-05-13T14:04:24Z</time>
      </trkpt>
      <trkpt lat="48.66451" lon="7.30039">
        <ele>434</ele>
        <time>2026-05-13T14:04:40Z</time>
      </trkpt>
      <trkpt lat="48.66425" lon="7.30033">
        <ele>437</ele>
        <time>2026-05-13T14:04:44Z</time>
      </trkpt>
      <trkpt lat="48.66398" lon="7.30018">
        <ele>439</ele>
        <time>2026-05-13T14:04:49Z</time>
      </trkpt>
      <trkpt lat="48.66377" lon="7.30018">
        <ele>441</ele>
        <time>2026-05-13T14:04:53Z</time>
      </trkpt>
      <trkpt lat="48.6636" lon="7.30024">
        <ele>442</ele>
        <time>2026-05-13T14:04:56Z</time>
      </trkpt>
      <trkpt lat="48.66366" lon="7.30048">
        <ele>445</ele>
        <time>2026-05-13T14:04:59Z</time>
      </trkpt>
      <trkpt lat="48.66346" lon="7.30029">
        <ele>444</ele>
        <time>2026-05-13T14:05:03Z</time>
      </trkpt>
      <trkpt lat="48.6633" lon="7.30004">
        <ele>441</ele>
        <time>2026-05-13T14:05:08Z</time>
      </trkpt>
      <trkpt lat="48.66328" lon="7.29968">
        <ele>447</ele>
        <time>2026-05-13T14:05:12Z</time>
      </trkpt>
      <trkpt lat="48.66295" lon="7.29882">
        <ele>463</ele>
        <time>2026-05-13T14:05:23Z</time>
      </trkpt>
      <trkpt lat="48.6622" lon="7.29745">
        <ele>473</ele>
        <time>2026-05-13T14:05:44Z</time>
      </trkpt>
      <trkpt lat="48.6617" lon="7.29674">
        <ele>477</ele>
        <time>2026-05-13T14:05:57Z</time>
      </trkpt>
      <trkpt lat="48.6611" lon="7.29621">
        <ele>490</ele>
        <time>2026-05-13T14:06:09Z</time>
      </trkpt>
      <trkpt lat="48.66073" lon="7.29558">
        <ele>496</ele>
        <time>2026-05-13T14:06:19Z</time>
      </trkpt>
      <trkpt lat="48.66034" lon="7.29544">
        <ele>499</ele>
        <time>2026-05-13T14:06:26Z</time>
      </trkpt>
      <trkpt lat="48.66023" lon="7.29506">
        <ele>500</ele>
        <time>2026-05-13T14:06:31Z</time>
      </trkpt>
      <trkpt lat="48.66007" lon="7.29516">
        <ele>499</ele>
        <time>2026-05-13T14:06:34Z</time>
      </trkpt>
      <trkpt lat="48.65993" lon="7.295">
        <ele>501</ele>
        <time>2026-05-13T14:06:37Z</time>
      </trkpt>
      <trkpt lat="48.65966" lon="7.29522">
        <ele>510</ele>
        <time>2026-05-13T14:06:43Z</time>
      </trkpt>
      <trkpt lat="48.65965" lon="7.29389">
        <ele>521</ele>
        <time>2026-05-13T14:06:58Z</time>
      </trkpt>
      <trkpt lat="48.65935" lon="7.29321">
        <ele>531</ele>
        <time>2026-05-13T14:07:08Z</time>
      </trkpt>
      <trkpt lat="48.65905" lon="7.29296">
        <ele>537</ele>
        <time>2026-05-13T14:07:14Z</time>
      </trkpt>
      <trkpt lat="48.65866" lon="7.29198">
        <ele>547</ele>
        <time>2026-05-13T14:07:27Z</time>
      </trkpt>
      <trkpt lat="48.65892" lon="7.29196">
        <ele>545</ele>
        <time>2026-05-13T14:07:32Z</time>
      </trkpt>
      <trkpt lat="48.65905" lon="7.2922">
        <ele>541</ele>
        <time>2026-05-13T14:07:36Z</time>
      </trkpt>
      <trkpt lat="48.65935" lon="7.29223">
        <ele>539</ele>
        <time>2026-05-13T14:07:41Z</time>
      </trkpt>
      <trkpt lat="48.65945" lon="7.29198">
        <ele>543</ele>
        <time>2026-05-13T14:07:44Z</time>
      </trkpt>
      <trkpt lat="48.65962" lon="7.2919">
        <ele>545</ele>
        <time>2026-05-13T14:07:48Z</time>
      </trkpt>
      <trkpt lat="48.66" lon="7.29185">
        <ele>548</ele>
        <time>2026-05-13T14:07:54Z</time>
      </trkpt>
      <trkpt lat="48.66044" lon="7.29222">
        <ele>554</ele>
        <time>2026-05-13T14:08:03Z</time>
      </trkpt>
      <trkpt lat="48.66074" lon="7.29278">
        <ele>551</ele>
        <time>2026-05-13T14:08:12Z</time>
      </trkpt>
      <trkpt lat="48.66098" lon="7.29372">
        <ele>540</ele>
        <time>2026-05-13T14:08:24Z</time>
      </trkpt>
      <trkpt lat="48.6612" lon="7.29434">
        <ele>535</ele>
        <time>2026-05-13T14:08:32Z</time>
      </trkpt>
      <trkpt lat="48.66152" lon="7.29475">
        <ele>537</ele>
        <time>2026-05-13T14:08:39Z</time>
      </trkpt>
      <trkpt lat="48.66204" lon="7.29522">
        <ele>537</ele>
        <time>2026-05-13T14:08:50Z</time>
      </trkpt>
      <trkpt lat="48.66259" lon="7.2957">
        <ele>537</ele>
        <time>2026-05-13T14:09:01Z</time>
      </trkpt>
      <trkpt lat="48.66309" lon="7.29615">
        <ele>543</ele>
        <time>2026-05-13T14:09:12Z</time>
      </trkpt>
      <trkpt lat="48.66324" lon="7.29636">
        <ele>541</ele>
        <time>2026-05-13T14:09:15Z</time>
      </trkpt>
      <trkpt lat="48.66347" lon="7.29668">
        <ele>539</ele>
        <time>2026-05-13T14:09:21Z</time>
      </trkpt>
      <trkpt lat="48.66412" lon="7.29767">
        <ele>533</ele>
        <time>2026-05-13T14:09:37Z</time>
      </trkpt>
      <trkpt lat="48.66434" lon="7.29781">
        <ele>531</ele>
        <time>2026-05-13T14:09:42Z</time>
      </trkpt>
      <trkpt lat="48.66468" lon="7.29788">
        <ele>531</ele>
        <time>2026-05-13T14:09:48Z</time>
      </trkpt>
      <trkpt lat="48.66664" lon="7.29827">
        <ele>520</ele>
        <time>2026-05-13T14:10:23Z</time>
      </trkpt>
      <trkpt lat="48.66687" lon="7.29829">
        <ele>516</ele>
        <time>2026-05-13T14:10:27Z</time>
      </trkpt>
      <trkpt lat="48.66702" lon="7.29823">
        <ele>513</ele>
        <time>2026-05-13T14:10:30Z</time>
      </trkpt>
      <trkpt lat="48.66711" lon="7.2981">
        <ele>513</ele>
        <time>2026-05-13T14:10:32Z</time>
      </trkpt>
      <trkpt lat="48.66716" lon="7.29784">
        <ele>514</ele>
        <time>2026-05-13T14:10:35Z</time>
      </trkpt>
      <trkpt lat="48.66716" lon="7.29739">
        <ele>518</ele>
        <time>2026-05-13T14:10:40Z</time>
      </trkpt>
      <trkpt lat="48.66711" lon="7.2967">
        <ele>520</ele>
        <time>2026-05-13T14:10:49Z</time>
      </trkpt>
      <trkpt lat="48.667" lon="7.29565">
        <ele>518</ele>
        <time>2026-05-13T14:11:01Z</time>
      </trkpt>
      <trkpt lat="48.6669" lon="7.29508">
        <ele>517</ele>
        <time>2026-05-13T14:11:08Z</time>
      </trkpt>
      <trkpt lat="48.66688" lon="7.29485">
        <ele>516</ele>
        <time>2026-05-13T14:11:11Z</time>
      </trkpt>
      <trkpt lat="48.66683" lon="7.29452">
        <ele>515</ele>
        <time>2026-05-13T14:11:15Z</time>
      </trkpt>
      <trkpt lat="48.6668" lon="7.29434">
        <ele>515</ele>
        <time>2026-05-13T14:11:17Z</time>
      </trkpt>
      <trkpt lat="48.66662" lon="7.29362">
        <ele>513</ele>
        <time>2026-05-13T14:11:26Z</time>
      </trkpt>
      <trkpt lat="48.6666" lon="7.29347">
        <ele>513</ele>
        <time>2026-05-13T14:11:28Z</time>
      </trkpt>
      <trkpt lat="48.66656" lon="7.29323">
        <ele>512</ele>
        <time>2026-05-13T14:11:31Z</time>
      </trkpt>
      <trkpt lat="48.66645" lon="7.29199">
        <ele>508</ele>
        <time>2026-05-13T14:11:45Z</time>
      </trkpt>
      <trkpt lat="48.66619" lon="7.29067">
        <ele>506</ele>
        <time>2026-05-13T14:12:02Z</time>
      </trkpt>
      <trkpt lat="48.66611" lon="7.29032">
        <ele>507</ele>
        <time>2026-05-13T14:12:06Z</time>
      </trkpt>
      <trkpt lat="48.66605" lon="7.29014">
        <ele>508</ele>
        <time>2026-05-13T14:12:08Z</time>
      </trkpt>
      <trkpt lat="48.66557" lon="7.2891">
        <ele>517</ele>
        <time>2026-05-13T14:12:23Z</time>
      </trkpt>
      <trkpt lat="48.6654" lon="7.28875">
        <ele>520</ele>
        <time>2026-05-13T14:12:28Z</time>
      </trkpt>
      <trkpt lat="48.66535" lon="7.28855">
        <ele>521</ele>
        <time>2026-05-13T14:12:31Z</time>
      </trkpt>
      <trkpt lat="48.66534" lon="7.28842">
        <ele>521</ele>
        <time>2026-05-13T14:12:32Z</time>
      </trkpt>
      <trkpt lat="48.66535" lon="7.28835">
        <ele>521</ele>
        <time>2026-05-13T14:12:33Z</time>
      </trkpt>
      <trkpt lat="48.66537" lon="7.28829">
        <ele>522</ele>
        <time>2026-05-13T14:12:34Z</time>
      </trkpt>
      <trkpt lat="48.66542" lon="7.28823">
        <ele>523</ele>
        <time>2026-05-13T14:12:35Z</time>
      </trkpt>
      <trkpt lat="48.66547" lon="7.28822">
        <ele>523</ele>
        <time>2026-05-13T14:12:36Z</time>
      </trkpt>
      <trkpt lat="48.66555" lon="7.28821">
        <ele>523</ele>
        <time>2026-05-13T14:12:37Z</time>
      </trkpt>
      <trkpt lat="48.66587" lon="7.28836">
        <ele>520</ele>
        <time>2026-05-13T14:12:43Z</time>
      </trkpt>
      <trkpt lat="48.6664" lon="7.28841">
        <ele>520</ele>
        <time>2026-05-13T14:12:53Z</time>
      </trkpt>
      <trkpt lat="48.66692" lon="7.28844">
        <ele>520</ele>
        <time>2026-05-13T14:13:02Z</time>
      </trkpt>
      <trkpt lat="48.66708" lon="7.28849">
        <ele>520</ele>
        <time>2026-05-13T14:13:05Z</time>
      </trkpt>
      <trkpt lat="48.66729" lon="7.28861">
        <ele>519</ele>
        <time>2026-05-13T14:13:09Z</time>
      </trkpt>
      <trkpt lat="48.66753" lon="7.28869">
        <ele>519</ele>
        <time>2026-05-13T14:13:13Z</time>
      </trkpt>
      <trkpt lat="48.66799" lon="7.28891">
        <ele>517</ele>
        <time>2026-05-13T14:13:22Z</time>
      </trkpt>
      <trkpt lat="48.66813" lon="7.28895">
        <ele>518</ele>
        <time>2026-05-13T14:13:24Z</time>
      </trkpt>
      <trkpt lat="48.66828" lon="7.28896">
        <ele>518</ele>
        <time>2026-05-13T14:13:27Z</time>
      </trkpt>
      <trkpt lat="48.66834" lon="7.28895">
        <ele>519</ele>
        <time>2026-05-13T14:13:28Z</time>
      </trkpt>
      <trkpt lat="48.66869" lon="7.2888">
        <ele>522</ele>
        <time>2026-05-13T14:13:35Z</time>
      </trkpt>
      <trkpt lat="48.66877" lon="7.28879">
        <ele>522</ele>
        <time>2026-05-13T14:13:36Z</time>
      </trkpt>
      <trkpt lat="48.66882" lon="7.28883">
        <ele>522</ele>
        <time>2026-05-13T14:13:37Z</time>
      </trkpt>
      <trkpt lat="48.66884" lon="7.28887">
        <ele>522</ele>
        <time>2026-05-13T14:13:38Z</time>
      </trkpt>
      <trkpt lat="48.66888" lon="7.2891">
        <ele>522</ele>
        <time>2026-05-13T14:13:41Z</time>
      </trkpt>
      <trkpt lat="48.66892" lon="7.28962">
        <ele>521</ele>
        <time>2026-05-13T14:13:47Z</time>
      </trkpt>
      <trkpt lat="48.66896" lon="7.29046">
        <ele>521</ele>
        <time>2026-05-13T14:13:57Z</time>
      </trkpt>
      <trkpt lat="48.66903" lon="7.29091">
        <ele>522</ele>
        <time>2026-05-13T14:14:02Z</time>
      </trkpt>
      <trkpt lat="48.66917" lon="7.29158">
        <ele>523</ele>
        <time>2026-05-13T14:14:10Z</time>
      </trkpt>
      <trkpt lat="48.66945" lon="7.29248">
        <ele>522</ele>
        <time>2026-05-13T14:14:22Z</time>
      </trkpt>
      <trkpt lat="48.66971" lon="7.29317">
        <ele>518</ele>
        <time>2026-05-13T14:14:31Z</time>
      </trkpt>
      <trkpt lat="48.67023" lon="7.29434">
        <ele>516</ele>
        <time>2026-05-13T14:14:48Z</time>
      </trkpt>
      <trkpt lat="48.67069" lon="7.29508">
        <ele>512</ele>
        <time>2026-05-13T14:15:00Z</time>
      </trkpt>
      <trkpt lat="48.67082" lon="7.29527">
        <ele>511</ele>
        <time>2026-05-13T14:15:03Z</time>
      </trkpt>
      <trkpt lat="48.67097" lon="7.29541">
        <ele>510</ele>
        <time>2026-05-13T14:15:06Z</time>
      </trkpt>
      <trkpt lat="48.67139" lon="7.2956">
        <ele>514</ele>
        <time>2026-05-13T14:15:14Z</time>
      </trkpt>
      <trkpt lat="48.67201" lon="7.29594">
        <ele>521</ele>
        <time>2026-05-13T14:15:26Z</time>
      </trkpt>
      <trkpt lat="48.67221" lon="7.29616">
        <ele>523</ele>
        <time>2026-05-13T14:15:30Z</time>
      </trkpt>
      <trkpt lat="48.67235" lon="7.29637">
        <ele>522</ele>
        <time>2026-05-13T14:15:34Z</time>
      </trkpt>
      <trkpt lat="48.67243" lon="7.29661">
        <ele>520</ele>
        <time>2026-05-13T14:15:37Z</time>
      </trkpt>
      <trkpt lat="48.67246" lon="7.29676">
        <ele>519</ele>
        <time>2026-05-13T14:15:39Z</time>
      </trkpt>
      <trkpt lat="48.67247" lon="7.29694">
        <ele>519</ele>
        <time>2026-05-13T14:15:41Z</time>
      </trkpt>
      <trkpt lat="48.67246" lon="7.29709">
        <ele>518</ele>
        <time>2026-05-13T14:15:42Z</time>
      </trkpt>
      <trkpt lat="48.67216" lon="7.29885">
        <ele>512</ele>
        <time>2026-05-13T14:16:04Z</time>
      </trkpt>
      <trkpt lat="48.67212" lon="7.29921">
        <ele>510</ele>
        <time>2026-05-13T14:16:08Z</time>
      </trkpt>
      <trkpt lat="48.67209" lon="7.29957">
        <ele>509</ele>
        <time>2026-05-13T14:16:12Z</time>
      </trkpt>
      <trkpt lat="48.67205" lon="7.29989">
        <ele>508</ele>
        <time>2026-05-13T14:16:16Z</time>
      </trkpt>
      <trkpt lat="48.67204" lon="7.30023">
        <ele>507</ele>
        <time>2026-05-13T14:16:20Z</time>
      </trkpt>
      <trkpt lat="48.67207" lon="7.30045">
        <ele>507</ele>
        <time>2026-05-13T14:16:23Z</time>
      </trkpt>
      <trkpt lat="48.67213" lon="7.30069">
        <ele>508</ele>
        <time>2026-05-13T14:16:26Z</time>
      </trkpt>
      <trkpt lat="48.67225" lon="7.301">
        <ele>508</ele>
        <time>2026-05-13T14:16:30Z</time>
      </trkpt>
      <trkpt lat="48.67241" lon="7.30128">
        <ele>508</ele>
        <time>2026-05-13T14:16:34Z</time>
      </trkpt>
      <trkpt lat="48.6726" lon="7.30156">
        <ele>508</ele>
        <time>2026-05-13T14:16:39Z</time>
      </trkpt>
      <trkpt lat="48.6731" lon="7.30217">
        <ele>503</ele>
        <time>2026-05-13T14:16:51Z</time>
      </trkpt>
      <trkpt lat="48.67344" lon="7.30248">
        <ele>504</ele>
        <time>2026-05-13T14:16:58Z</time>
      </trkpt>
      <trkpt lat="48.67376" lon="7.30281">
        <ele>507</ele>
        <time>2026-05-13T14:17:05Z</time>
      </trkpt>
      <trkpt lat="48.67387" lon="7.30298">
        <ele>507</ele>
        <time>2026-05-13T14:17:07Z</time>
      </trkpt>
      <trkpt lat="48.67406" lon="7.30348">
        <ele>505</ele>
        <time>2026-05-13T14:17:14Z</time>
      </trkpt>
      <trkpt lat="48.67415" lon="7.30383">
        <ele>506</ele>
        <time>2026-05-13T14:17:19Z</time>
      </trkpt>
      <trkpt lat="48.67418" lon="7.304">
        <ele>506</ele>
        <time>2026-05-13T14:17:21Z</time>
      </trkpt>
      <trkpt lat="48.67417" lon="7.30417">
        <ele>504</ele>
        <time>2026-05-13T14:17:23Z</time>
      </trkpt>
      <trkpt lat="48.67412" lon="7.30438">
        <ele>502</ele>
        <time>2026-05-13T14:17:25Z</time>
      </trkpt>
      <trkpt lat="48.67404" lon="7.30463">
        <ele>499</ele>
        <time>2026-05-13T14:17:28Z</time>
      </trkpt>
      <trkpt lat="48.67376" lon="7.30517">
        <ele>486</ele>
        <time>2026-05-13T14:17:37Z</time>
      </trkpt>
      <trkpt lat="48.6737" lon="7.3054">
        <ele>483</ele>
        <time>2026-05-13T14:17:39Z</time>
      </trkpt>
      <trkpt lat="48.67371" lon="7.30554">
        <ele>483</ele>
        <time>2026-05-13T14:17:41Z</time>
      </trkpt>
      <trkpt lat="48.67374" lon="7.30568">
        <ele>485</ele>
        <time>2026-05-13T14:17:43Z</time>
      </trkpt>
      <trkpt lat="48.67391" lon="7.30623">
        <ele>490</ele>
        <time>2026-05-13T14:17:50Z</time>
      </trkpt>
      <trkpt lat="48.67454" lon="7.30776">
        <ele>495</ele>
        <time>2026-05-13T14:18:11Z</time>
      </trkpt>
      <trkpt lat="48.67471" lon="7.30823">
        <ele>493</ele>
        <time>2026-05-13T14:18:17Z</time>
      </trkpt>
      <trkpt lat="48.6749" lon="7.30882">
        <ele>491</ele>
        <time>2026-05-13T14:18:25Z</time>
      </trkpt>
      <trkpt lat="48.67501" lon="7.3093">
        <ele>488</ele>
        <time>2026-05-13T14:18:31Z</time>
      </trkpt>
      <trkpt lat="48.67507" lon="7.30972">
        <ele>488</ele>
        <time>2026-05-13T14:18:36Z</time>
      </trkpt>
      <trkpt lat="48.67509" lon="7.30997">
        <ele>487</ele>
        <time>2026-05-13T14:18:39Z</time>
      </trkpt>
      <trkpt lat="48.67508" lon="7.31022">
        <ele>487</ele>
        <time>2026-05-13T14:18:42Z</time>
      </trkpt>
      <trkpt lat="48.675" lon="7.31094">
        <ele>484</ele>
        <time>2026-05-13T14:18:51Z</time>
      </trkpt>
      <trkpt lat="48.675" lon="7.31122">
        <ele>484</ele>
        <time>2026-05-13T14:18:54Z</time>
      </trkpt>
      <trkpt lat="48.67502" lon="7.31147">
        <ele>484</ele>
        <time>2026-05-13T14:18:57Z</time>
      </trkpt>
      <trkpt lat="48.67507" lon="7.31173">
        <ele>485</ele>
        <time>2026-05-13T14:19:00Z</time>
      </trkpt>
      <trkpt lat="48.67516" lon="7.31209">
        <ele>483</ele>
        <time>2026-05-13T14:19:05Z</time>
      </trkpt>
      <trkpt lat="48.67524" lon="7.31233">
        <ele>482</ele>
        <time>2026-05-13T14:19:08Z</time>
      </trkpt>
      <trkpt lat="48.67535" lon="7.31255">
        <ele>482</ele>
        <time>2026-05-13T14:19:11Z</time>
      </trkpt>
      <trkpt lat="48.67548" lon="7.3127">
        <ele>482</ele>
        <time>2026-05-13T14:19:14Z</time>
      </trkpt>
      <trkpt lat="48.6756" lon="7.31279">
        <ele>483</ele>
        <time>2026-05-13T14:19:16Z</time>
      </trkpt>
      <trkpt lat="48.67574" lon="7.31284">
        <ele>486</ele>
        <time>2026-05-13T14:19:19Z</time>
      </trkpt>
      <trkpt lat="48.67604" lon="7.3129">
        <ele>489</ele>
        <time>2026-05-13T14:19:24Z</time>
      </trkpt>
      <trkpt lat="48.67625" lon="7.3129">
        <ele>490</ele>
        <time>2026-05-13T14:19:28Z</time>
      </trkpt>
      <trkpt lat="48.67636" lon="7.31285">
        <ele>493</ele>
        <time>2026-05-13T14:19:30Z</time>
      </trkpt>
      <trkpt lat="48.67653" lon="7.31269">
        <ele>501</ele>
        <time>2026-05-13T14:19:34Z</time>
      </trkpt>
      <trkpt lat="48.67666" lon="7.31261">
        <ele>505</ele>
        <time>2026-05-13T14:19:36Z</time>
      </trkpt>
      <trkpt lat="48.67685" lon="7.31257">
        <ele>505</ele>
        <time>2026-05-13T14:19:39Z</time>
      </trkpt>
      <trkpt lat="48.67709" lon="7.31255">
        <ele>504</ele>
        <time>2026-05-13T14:19:44Z</time>
      </trkpt>
      <trkpt lat="48.67733" lon="7.31259">
        <ele>500</ele>
        <time>2026-05-13T14:19:48Z</time>
      </trkpt>
      <trkpt lat="48.67766" lon="7.31269">
        <ele>492</ele>
        <time>2026-05-13T14:19:54Z</time>
      </trkpt>
      <trkpt lat="48.6778" lon="7.31266">
        <ele>492</ele>
        <time>2026-05-13T14:19:57Z</time>
      </trkpt>
      <trkpt lat="48.67825" lon="7.31245">
        <ele>494</ele>
        <time>2026-05-13T14:20:05Z</time>
      </trkpt>
      <trkpt lat="48.67847" lon="7.31239">
        <ele>494</ele>
        <time>2026-05-13T14:20:09Z</time>
      </trkpt>
      <trkpt lat="48.67874" lon="7.31237">
        <ele>494</ele>
        <time>2026-05-13T14:20:14Z</time>
      </trkpt>
      <trkpt lat="48.67895" lon="7.31239">
        <ele>493</ele>
        <time>2026-05-13T14:20:17Z</time>
      </trkpt>
      <trkpt lat="48.67908" lon="7.31243">
        <ele>491</ele>
        <time>2026-05-13T14:20:20Z</time>
      </trkpt>
      <trkpt lat="48.67936" lon="7.31263">
        <ele>487</ele>
        <time>2026-05-13T14:20:25Z</time>
      </trkpt>
      <trkpt lat="48.67962" lon="7.31287">
        <ele>484</ele>
        <time>2026-05-13T14:20:31Z</time>
      </trkpt>
      <trkpt lat="48.67976" lon="7.31296">
        <ele>484</ele>
        <time>2026-05-13T14:20:33Z</time>
      </trkpt>
      <trkpt lat="48.67992" lon="7.31299">
        <ele>485</ele>
        <time>2026-05-13T14:20:36Z</time>
      </trkpt>
      <trkpt lat="48.68009" lon="7.31297">
        <ele>485</ele>
        <time>2026-05-13T14:20:39Z</time>
      </trkpt>
      <trkpt lat="48.68044" lon="7.31279">
        <ele>484</ele>
        <time>2026-05-13T14:20:46Z</time>
      </trkpt>
      <trkpt lat="48.68056" lon="7.31268">
        <ele>484</ele>
        <time>2026-05-13T14:20:48Z</time>
      </trkpt>
      <trkpt lat="48.68072" lon="7.31232">
        <ele>485</ele>
        <time>2026-05-13T14:20:54Z</time>
      </trkpt>
      <trkpt lat="48.6809" lon="7.31204">
        <ele>484</ele>
        <time>2026-05-13T14:20:58Z</time>
      </trkpt>
      <trkpt lat="48.6809" lon="7.31204">
        <ele>484</ele>
        <time>2026-05-13T14:20:58Z</time>
      </trkpt>
      <trkpt lat="48.68104" lon="7.31181">
        <ele>483</ele>
        <time>2026-05-13T14:21:02Z</time>
      </trkpt>
      <trkpt lat="48.6813" lon="7.31157">
        <ele>480</ele>
        <time>2026-05-13T14:21:07Z</time>
      </trkpt>
      <trkpt lat="48.68146" lon="7.31139">
        <ele>477</ele>
        <time>2026-05-13T14:21:11Z</time>
      </trkpt>
      <trkpt lat="48.68179" lon="7.3111">
        <ele>472</ele>
        <time>2026-05-13T14:21:18Z</time>
      </trkpt>
      <trkpt lat="48.68202" lon="7.31097">
        <ele>472</ele>
        <time>2026-05-13T14:21:22Z</time>
      </trkpt>
      <trkpt lat="48.68223" lon="7.31092">
        <ele>472</ele>
        <time>2026-05-13T14:21:26Z</time>
      </trkpt>
      <trkpt lat="48.68275" lon="7.31098">
        <ele>473</ele>
        <time>2026-05-13T14:21:35Z</time>
      </trkpt>
      <trkpt lat="48.68345" lon="7.31091">
        <ele>471</ele>
        <time>2026-05-13T14:21:47Z</time>
      </trkpt>
      <trkpt lat="48.68412" lon="7.31089">
        <ele>468</ele>
        <time>2026-05-13T14:21:59Z</time>
      </trkpt>
      <trkpt lat="48.68471" lon="7.31104">
        <ele>466</ele>
        <time>2026-05-13T14:22:10Z</time>
      </trkpt>
      <trkpt lat="48.68577" lon="7.31144">
        <ele>461</ele>
        <time>2026-05-13T14:22:29Z</time>
      </trkpt>
      <trkpt lat="48.68607" lon="7.31162">
        <ele>458</ele>
        <time>2026-05-13T14:22:35Z</time>
      </trkpt>
      <trkpt lat="48.68636" lon="7.31183">
        <ele>455</ele>
        <time>2026-05-13T14:22:41Z</time>
      </trkpt>
      <trkpt lat="48.68667" lon="7.31211">
        <ele>452</ele>
        <time>2026-05-13T14:22:47Z</time>
      </trkpt>
      <trkpt lat="48.68684" lon="7.31219">
        <ele>452</ele>
        <time>2026-05-13T14:22:51Z</time>
      </trkpt>
      <trkpt lat="48.68699" lon="7.31221">
        <ele>452</ele>
        <time>2026-05-13T14:22:53Z</time>
      </trkpt>
      <trkpt lat="48.68711" lon="7.31216">
        <ele>452</ele>
        <time>2026-05-13T14:22:55Z</time>
      </trkpt>
      <trkpt lat="48.68721" lon="7.31205">
        <ele>450</ele>
        <time>2026-05-13T14:22:58Z</time>
      </trkpt>
      <trkpt lat="48.68724" lon="7.31186">
        <ele>449</ele>
        <time>2026-05-13T14:23:00Z</time>
      </trkpt>
      <trkpt lat="48.68733" lon="7.31144">
        <ele>443</ele>
        <time>2026-05-13T14:23:05Z</time>
      </trkpt>
      <trkpt lat="48.68744" lon="7.31115">
        <ele>438</ele>
        <time>2026-05-13T14:23:09Z</time>
      </trkpt>
      <trkpt lat="48.68759" lon="7.31101">
        <ele>436</ele>
        <time>2026-05-13T14:23:12Z</time>
      </trkpt>
      <trkpt lat="48.68792" lon="7.31088">
        <ele>435</ele>
        <time>2026-05-13T14:23:18Z</time>
      </trkpt>
      <trkpt lat="48.68799" lon="7.31079">
        <ele>433</ele>
        <time>2026-05-13T14:23:20Z</time>
      </trkpt>
      <trkpt lat="48.68814" lon="7.31072">
        <ele>432</ele>
        <time>2026-05-13T14:23:23Z</time>
      </trkpt>
      <trkpt lat="48.68837" lon="7.31068">
        <ele>431</ele>
        <time>2026-05-13T14:23:27Z</time>
      </trkpt>
      <trkpt lat="48.68866" lon="7.31068">
        <ele>430</ele>
        <time>2026-05-13T14:23:32Z</time>
      </trkpt>
      <trkpt lat="48.68909" lon="7.3107">
        <ele>428</ele>
        <time>2026-05-13T14:23:40Z</time>
      </trkpt>
      <trkpt lat="48.68949" lon="7.31081">
        <ele>428</ele>
        <time>2026-05-13T14:23:47Z</time>
      </trkpt>
      <trkpt lat="48.69004" lon="7.31091">
        <ele>426</ele>
        <time>2026-05-13T14:23:57Z</time>
      </trkpt>
      <trkpt lat="48.69061" lon="7.31107">
        <ele>424</ele>
        <time>2026-05-13T14:24:07Z</time>
      </trkpt>
      <trkpt lat="48.69159" lon="7.31118">
        <ele>422</ele>
        <time>2026-05-13T14:24:24Z</time>
      </trkpt>
      <trkpt lat="48.69171" lon="7.31118">
        <ele>421</ele>
        <time>2026-05-13T14:24:27Z</time>
      </trkpt>
      <trkpt lat="48.69232" lon="7.31119">
        <ele>419</ele>
        <time>2026-05-13T14:24:37Z</time>
      </trkpt>
      <trkpt lat="48.69315" lon="7.31125">
        <ele>419</ele>
        <time>2026-05-13T14:24:52Z</time>
      </trkpt>
      <trkpt lat="48.69399" lon="7.31148">
        <ele>417</ele>
        <time>2026-05-13T14:25:07Z</time>
      </trkpt>
      <trkpt lat="48.69423" lon="7.31157">
        <ele>416</ele>
        <time>2026-05-13T14:25:12Z</time>
      </trkpt>
      <trkpt lat="48.69456" lon="7.31181">
        <ele>416</ele>
        <time>2026-05-13T14:25:18Z</time>
      </trkpt>
      <trkpt lat="48.69483" lon="7.31203">
        <ele>415</ele>
        <time>2026-05-13T14:25:24Z</time>
      </trkpt>
      <trkpt lat="48.69535" lon="7.31268">
        <ele>412</ele>
        <time>2026-05-13T14:25:36Z</time>
      </trkpt>
      <trkpt lat="48.6957" lon="7.31321">
        <ele>411</ele>
        <time>2026-05-13T14:25:45Z</time>
      </trkpt>
      <trkpt lat="48.69602" lon="7.31389">
        <ele>411</ele>
        <time>2026-05-13T14:25:54Z</time>
      </trkpt>
      <trkpt lat="48.69626" lon="7.31465">
        <ele>414</ele>
        <time>2026-05-13T14:26:04Z</time>
      </trkpt>
      <trkpt lat="48.69638" lon="7.31492">
        <ele>414</ele>
        <time>2026-05-13T14:26:08Z</time>
      </trkpt>
      <trkpt lat="48.69653" lon="7.31511">
        <ele>413</ele>
        <time>2026-05-13T14:26:12Z</time>
      </trkpt>
      <trkpt lat="48.6967" lon="7.31519">
        <ele>411</ele>
        <time>2026-05-13T14:26:15Z</time>
      </trkpt>
      <trkpt lat="48.69691" lon="7.3152">
        <ele>413</ele>
        <time>2026-05-13T14:26:19Z</time>
      </trkpt>
      <trkpt lat="48.69707" lon="7.31516">
        <ele>413</ele>
        <time>2026-05-13T14:26:21Z</time>
      </trkpt>
      <trkpt lat="48.69727" lon="7.31504">
        <ele>411</ele>
        <time>2026-05-13T14:26:25Z</time>
      </trkpt>
      <trkpt lat="48.69766" lon="7.31469">
        <ele>406</ele>
        <time>2026-05-13T14:26:33Z</time>
      </trkpt>
      <trkpt lat="48.69834" lon="7.31416">
        <ele>404</ele>
        <time>2026-05-13T14:26:47Z</time>
      </trkpt>
      <trkpt lat="48.69862" lon="7.314">
        <ele>403</ele>
        <time>2026-05-13T14:26:52Z</time>
      </trkpt>
      <trkpt lat="48.69892" lon="7.31389">
        <ele>403</ele>
        <time>2026-05-13T14:26:58Z</time>
      </trkpt>
      <trkpt lat="48.6993" lon="7.31385">
        <ele>403</ele>
        <time>2026-05-13T14:27:05Z</time>
      </trkpt>
      <trkpt lat="48.69958" lon="7.31387">
        <ele>402</ele>
        <time>2026-05-13T14:27:09Z</time>
      </trkpt>
      <trkpt lat="48.70004" lon="7.31406">
        <ele>404</ele>
        <time>2026-05-13T14:27:18Z</time>
      </trkpt>
      <trkpt lat="48.70039" lon="7.31423">
        <ele>402</ele>
        <time>2026-05-13T14:27:25Z</time>
      </trkpt>
      <trkpt lat="48.7006" lon="7.31443">
        <ele>402</ele>
        <time>2026-05-13T14:27:29Z</time>
      </trkpt>
      <trkpt lat="48.70083" lon="7.31476">
        <ele>402</ele>
        <time>2026-05-13T14:27:35Z</time>
      </trkpt>
      <trkpt lat="48.70103" lon="7.31512">
        <ele>403</ele>
        <time>2026-05-13T14:27:40Z</time>
      </trkpt>
      <trkpt lat="48.7012" lon="7.31557">
        <ele>404</ele>
        <time>2026-05-13T14:27:46Z</time>
      </trkpt>
      <trkpt lat="48.70128" lon="7.31598">
        <ele>405</ele>
        <time>2026-05-13T14:27:51Z</time>
      </trkpt>
      <trkpt lat="48.70131" lon="7.31659">
        <ele>405</ele>
        <time>2026-05-13T14:27:58Z</time>
      </trkpt>
      <trkpt lat="48.7012" lon="7.31732">
        <ele>407</ele>
        <time>2026-05-13T14:28:07Z</time>
      </trkpt>
      <trkpt lat="48.70106" lon="7.31799">
        <ele>403</ele>
        <time>2026-05-13T14:28:15Z</time>
      </trkpt>
      <trkpt lat="48.7009" lon="7.31848">
        <ele>399</ele>
        <time>2026-05-13T14:28:22Z</time>
      </trkpt>
      <trkpt lat="48.70069" lon="7.31888">
        <ele>397</ele>
        <time>2026-05-13T14:28:28Z</time>
      </trkpt>
      <trkpt lat="48.69996" lon="7.32015">
        <ele>391</ele>
        <time>2026-05-13T14:28:48Z</time>
      </trkpt>
      <trkpt lat="48.69965" lon="7.3208">
        <ele>389</ele>
        <time>2026-05-13T14:28:57Z</time>
      </trkpt>
      <trkpt lat="48.69926" lon="7.32152">
        <ele>389</ele>
        <time>2026-05-13T14:29:08Z</time>
      </trkpt>
      <trkpt lat="48.6984" lon="7.32286">
        <ele>388</ele>
        <time>2026-05-13T14:29:30Z</time>
      </trkpt>
      <trkpt lat="48.69786" lon="7.32373">
        <ele>386</ele>
        <time>2026-05-13T14:29:44Z</time>
      </trkpt>
      <trkpt lat="48.69767" lon="7.32394">
        <ele>386</ele>
        <time>2026-05-13T14:29:48Z</time>
      </trkpt>
      <trkpt lat="48.6975" lon="7.32404">
        <ele>387</ele>
        <time>2026-05-13T14:29:51Z</time>
      </trkpt>
      <trkpt lat="48.69689" lon="7.32434">
        <ele>389</ele>
        <time>2026-05-13T14:30:03Z</time>
      </trkpt>
      <trkpt lat="48.69677" lon="7.32447">
        <ele>389</ele>
        <time>2026-05-13T14:30:05Z</time>
      </trkpt>
      <trkpt lat="48.69663" lon="7.32479">
        <ele>387</ele>
        <time>2026-05-13T14:30:10Z</time>
      </trkpt>
      <trkpt lat="48.69622" lon="7.32531">
        <ele>390</ele>
        <time>2026-05-13T14:30:19Z</time>
      </trkpt>
      <trkpt lat="48.69616" lon="7.3255">
        <ele>390</ele>
        <time>2026-05-13T14:30:22Z</time>
      </trkpt>
      <trkpt lat="48.69616" lon="7.32564">
        <ele>390</ele>
        <time>2026-05-13T14:30:24Z</time>
      </trkpt>
      <trkpt lat="48.69618" lon="7.32577">
        <ele>390</ele>
        <time>2026-05-13T14:30:25Z</time>
      </trkpt>
      <trkpt lat="48.69628" lon="7.3261">
        <ele>390</ele>
        <time>2026-05-13T14:30:29Z</time>
      </trkpt>
      <trkpt lat="48.69636" lon="7.32636">
        <ele>389</ele>
        <time>2026-05-13T14:30:33Z</time>
      </trkpt>
      <trkpt lat="48.69654" lon="7.32623">
        <ele>388</ele>
        <time>2026-05-13T14:30:36Z</time>
      </trkpt>
      <trkpt lat="48.69636" lon="7.32636">
        <ele>389</ele>
        <time>2026-05-13T14:30:40Z</time>
      </trkpt>
      <trkpt lat="48.69636" lon="7.32641">
        <ele>389</ele>
        <time>2026-05-13T14:30:40Z</time>
      </trkpt>
      <trkpt lat="48.69642" lon="7.32641">
        <ele>389</ele>
        <time>2026-05-13T14:30:42Z</time>
      </trkpt>
      <trkpt lat="48.6965" lon="7.32643">
        <ele>388</ele>
        <time>2026-05-13T14:30:43Z</time>
      </trkpt>
      <trkpt lat="48.69659" lon="7.3265">
        <ele>388</ele>
        <time>2026-05-13T14:30:45Z</time>
      </trkpt>
      <trkpt lat="48.69665" lon="7.32658">
        <ele>388</ele>
        <time>2026-05-13T14:30:46Z</time>
      </trkpt>
      <trkpt lat="48.69668" lon="7.32667">
        <ele>388</ele>
        <time>2026-05-13T14:30:47Z</time>
      </trkpt>
      <trkpt lat="48.69682" lon="7.3266">
        <ele>389</ele>
        <time>2026-05-13T14:30:50Z</time>
      </trkpt>
      <trkpt lat="48.69697" lon="7.32655">
        <ele>390</ele>
        <time>2026-05-13T14:30:53Z</time>
      </trkpt>
      <trkpt lat="48.69715" lon="7.32657">
        <ele>392</ele>
        <time>2026-05-13T14:30:56Z</time>
      </trkpt>
      <trkpt lat="48.6974" lon="7.32661">
        <ele>394</ele>
        <time>2026-05-13T14:31:00Z</time>
      </trkpt>
      <trkpt lat="48.69748" lon="7.32661">
        <ele>395</ele>
        <time>2026-05-13T14:31:02Z</time>
      </trkpt>
      <trkpt lat="48.69753" lon="7.32658">
        <ele>395</ele>
        <time>2026-05-13T14:31:03Z</time>
      </trkpt>
      <trkpt lat="48.69792" lon="7.32647">
        <ele>398</ele>
        <time>2026-05-13T14:31:10Z</time>
      </trkpt>
      <trkpt lat="48.69822" lon="7.32633">
        <ele>399</ele>
        <time>2026-05-13T14:31:15Z</time>
      </trkpt>
      <trkpt lat="48.69852" lon="7.32612">
        <ele>400</ele>
        <time>2026-05-13T14:31:21Z</time>
      </trkpt>
      <trkpt lat="48.69879" lon="7.32583">
        <ele>399</ele>
        <time>2026-05-13T14:31:27Z</time>
      </trkpt>
      <trkpt lat="48.69925" lon="7.32526">
        <ele>402</ele>
        <time>2026-05-13T14:31:38Z</time>
      </trkpt>
      <trkpt lat="48.69938" lon="7.32474">
        <ele>398</ele>
        <time>2026-05-13T14:31:44Z</time>
      </trkpt>
      <trkpt lat="48.69981" lon="7.3242">
        <ele>395</ele>
        <time>2026-05-13T14:31:54Z</time>
      </trkpt>
      <trkpt lat="48.70107" lon="7.32299">
        <ele>394</ele>
        <time>2026-05-13T14:32:21Z</time>
      </trkpt>
      <trkpt lat="48.70158" lon="7.32256">
        <ele>395</ele>
        <time>2026-05-13T14:32:31Z</time>
      </trkpt>
      <trkpt lat="48.70206" lon="7.32211">
        <ele>394</ele>
        <time>2026-05-13T14:32:41Z</time>
      </trkpt>
      <trkpt lat="48.7026" lon="7.32168">
        <ele>393</ele>
        <time>2026-05-13T14:32:52Z</time>
      </trkpt>
      <trkpt lat="48.70311" lon="7.32104">
        <ele>388</ele>
        <time>2026-05-13T14:33:04Z</time>
      </trkpt>
      <trkpt lat="48.70322" lon="7.32088">
        <ele>386</ele>
        <time>2026-05-13T14:33:07Z</time>
      </trkpt>
      <trkpt lat="48.70352" lon="7.32046">
        <ele>385</ele>
        <time>2026-05-13T14:33:14Z</time>
      </trkpt>
      <trkpt lat="48.704" lon="7.32001">
        <ele>389</ele>
        <time>2026-05-13T14:33:24Z</time>
      </trkpt>
      <trkpt lat="48.70439" lon="7.3196">
        <ele>387</ele>
        <time>2026-05-13T14:33:32Z</time>
      </trkpt>
      <trkpt lat="48.70492" lon="7.31928">
        <ele>387</ele>
        <time>2026-05-13T14:33:42Z</time>
      </trkpt>
      <trkpt lat="48.70541" lon="7.31904">
        <ele>398</ele>
        <time>2026-05-13T14:33:52Z</time>
      </trkpt>
      <trkpt lat="48.70556" lon="7.318">
        <ele>385</ele>
        <time>2026-05-13T14:34:04Z</time>
      </trkpt>
      <trkpt lat="48.7057" lon="7.31756">
        <ele>386</ele>
        <time>2026-05-13T14:34:10Z</time>
      </trkpt>
      <trkpt lat="48.70616" lon="7.31681">
        <ele>393</ele>
        <time>2026-05-13T14:34:22Z</time>
      </trkpt>
      <trkpt lat="48.70668" lon="7.31612">
        <ele>398</ele>
        <time>2026-05-13T14:34:34Z</time>
      </trkpt>
      <trkpt lat="48.70718" lon="7.31565">
        <ele>402</ele>
        <time>2026-05-13T14:34:45Z</time>
      </trkpt>
      <trkpt lat="48.70746" lon="7.31526">
        <ele>399</ele>
        <time>2026-05-13T14:34:51Z</time>
      </trkpt>
      <trkpt lat="48.70793" lon="7.3149">
        <ele>398</ele>
        <time>2026-05-13T14:35:01Z</time>
      </trkpt>
      <trkpt lat="48.70839" lon="7.31464">
        <ele>399</ele>
        <time>2026-05-13T14:35:10Z</time>
      </trkpt>
      <trkpt lat="48.70883" lon="7.31462">
        <ele>398</ele>
        <time>2026-05-13T14:35:17Z</time>
      </trkpt>
      <trkpt lat="48.70933" lon="7.31473">
        <ele>398</ele>
        <time>2026-05-13T14:35:26Z</time>
      </trkpt>
      <trkpt lat="48.71001" lon="7.3152">
        <ele>396</ele>
        <time>2026-05-13T14:35:40Z</time>
      </trkpt>
      <trkpt lat="48.7103" lon="7.31567">
        <ele>397</ele>
        <time>2026-05-13T14:35:47Z</time>
      </trkpt>
      <trkpt lat="48.71042" lon="7.31587">
        <ele>396</ele>
        <time>2026-05-13T14:35:50Z</time>
      </trkpt>
      <trkpt lat="48.71074" lon="7.31659">
        <ele>393</ele>
        <time>2026-05-13T14:36:01Z</time>
      </trkpt>
      <trkpt lat="48.71098" lon="7.31773">
        <ele>392</ele>
        <time>2026-05-13T14:36:15Z</time>
      </trkpt>
      <trkpt lat="48.71132" lon="7.31842">
        <ele>393</ele>
        <time>2026-05-13T14:36:25Z</time>
      </trkpt>
      <trkpt lat="48.71161" lon="7.31881">
        <ele>396</ele>
        <time>2026-05-13T14:36:32Z</time>
      </trkpt>
      <trkpt lat="48.71227" lon="7.31874">
        <ele>391</ele>
        <time>2026-05-13T14:36:43Z</time>
      </trkpt>
      <trkpt lat="48.71277" lon="7.31876">
        <ele>390</ele>
        <time>2026-05-13T14:36:52Z</time>
      </trkpt>
      <trkpt lat="48.71321" lon="7.31883">
        <ele>390</ele>
        <time>2026-05-13T14:37:00Z</time>
      </trkpt>
      <trkpt lat="48.71377" lon="7.31897">
        <ele>390</ele>
        <time>2026-05-13T14:37:10Z</time>
      </trkpt>
      <trkpt lat="48.71411" lon="7.31923">
        <ele>391</ele>
        <time>2026-05-13T14:37:17Z</time>
      </trkpt>
      <trkpt lat="48.71441" lon="7.31953">
        <ele>390</ele>
        <time>2026-05-13T14:37:23Z</time>
      </trkpt>
      <trkpt lat="48.71471" lon="7.31992">
        <ele>388</ele>
        <time>2026-05-13T14:37:30Z</time>
      </trkpt>
      <trkpt lat="48.71487" lon="7.32019">
        <ele>385</ele>
        <time>2026-05-13T14:37:35Z</time>
      </trkpt>
      <trkpt lat="48.71493" lon="7.32039">
        <ele>383</ele>
        <time>2026-05-13T14:37:37Z</time>
      </trkpt>
      <trkpt lat="48.71494" lon="7.32053">
        <ele>382</ele>
        <time>2026-05-13T14:37:39Z</time>
      </trkpt>
      <trkpt lat="48.71491" lon="7.32069">
        <ele>382</ele>
        <time>2026-05-13T14:37:41Z</time>
      </trkpt>
      <trkpt lat="48.71485" lon="7.32081">
        <ele>382</ele>
        <time>2026-05-13T14:37:43Z</time>
      </trkpt>
      <trkpt lat="48.71474" lon="7.32092">
        <ele>381</ele>
        <time>2026-05-13T14:37:45Z</time>
      </trkpt>
      <trkpt lat="48.71448" lon="7.321">
        <ele>382</ele>
        <time>2026-05-13T14:37:50Z</time>
      </trkpt>
      <trkpt lat="48.71413" lon="7.32117">
        <ele>382</ele>
        <time>2026-05-13T14:37:56Z</time>
      </trkpt>
      <trkpt lat="48.71374" lon="7.32142">
        <ele>387</ele>
        <time>2026-05-13T14:38:04Z</time>
      </trkpt>
      <trkpt lat="48.71341" lon="7.32174">
        <ele>389</ele>
        <time>2026-05-13T14:38:11Z</time>
      </trkpt>
      <trkpt lat="48.71315" lon="7.32226">
        <ele>386</ele>
        <time>2026-05-13T14:38:18Z</time>
      </trkpt>
      <trkpt lat="48.71277" lon="7.32365">
        <ele>384</ele>
        <time>2026-05-13T14:38:36Z</time>
      </trkpt>
      <trkpt lat="48.71262" lon="7.32418">
        <ele>381</ele>
        <time>2026-05-13T14:38:43Z</time>
      </trkpt>
      <trkpt lat="48.71251" lon="7.32442">
        <ele>381</ele>
        <time>2026-05-13T14:38:46Z</time>
      </trkpt>
      <trkpt lat="48.71228" lon="7.32478">
        <ele>383</ele>
        <time>2026-05-13T14:38:52Z</time>
      </trkpt>
      <trkpt lat="48.71222" lon="7.32493">
        <ele>382</ele>
        <time>2026-05-13T14:38:54Z</time>
      </trkpt>
      <trkpt lat="48.71214" lon="7.32507">
        <ele>382</ele>
        <time>2026-05-13T14:38:56Z</time>
      </trkpt>
      <trkpt lat="48.71199" lon="7.32525">
        <ele>382</ele>
        <time>2026-05-13T14:39:00Z</time>
      </trkpt>
      <trkpt lat="48.71136" lon="7.32591">
        <ele>388</ele>
        <time>2026-05-13T14:39:13Z</time>
      </trkpt>
      <trkpt lat="48.71104" lon="7.32642">
        <ele>390</ele>
        <time>2026-05-13T14:39:22Z</time>
      </trkpt>
      <trkpt lat="48.71096" lon="7.32665">
        <ele>388</ele>
        <time>2026-05-13T14:39:25Z</time>
      </trkpt>
      <trkpt lat="48.71093" lon="7.32687">
        <ele>391</ele>
        <time>2026-05-13T14:39:27Z</time>
      </trkpt>
      <trkpt lat="48.71093" lon="7.32702">
        <ele>392</ele>
        <time>2026-05-13T14:39:29Z</time>
      </trkpt>
      <trkpt lat="48.711" lon="7.32718">
        <ele>391</ele>
        <time>2026-05-13T14:39:31Z</time>
      </trkpt>
      <trkpt lat="48.7118" lon="7.32789">
        <ele>380</ele>
        <time>2026-05-13T14:39:48Z</time>
      </trkpt>
      <trkpt lat="48.71227" lon="7.32863">
        <ele>385</ele>
        <time>2026-05-13T14:40:00Z</time>
      </trkpt>
      <trkpt lat="48.71243" lon="7.32881">
        <ele>386</ele>
        <time>2026-05-13T14:40:04Z</time>
      </trkpt>
      <trkpt lat="48.71265" lon="7.32895">
        <ele>387</ele>
        <time>2026-05-13T14:40:08Z</time>
      </trkpt>
      <trkpt lat="48.71307" lon="7.32899">
        <ele>382</ele>
        <time>2026-05-13T14:40:15Z</time>
      </trkpt>
      <trkpt lat="48.71345" lon="7.32894">
        <ele>375</ele>
        <time>2026-05-13T14:40:22Z</time>
      </trkpt>
      <trkpt lat="48.71417" lon="7.32878">
        <ele>371</ele>
        <time>2026-05-13T14:40:35Z</time>
      </trkpt>
      <trkpt lat="48.71476" lon="7.32871">
        <ele>368</ele>
        <time>2026-05-13T14:40:46Z</time>
      </trkpt>
      <trkpt lat="48.71508" lon="7.32872">
        <ele>368</ele>
        <time>2026-05-13T14:40:51Z</time>
      </trkpt>
      <trkpt lat="48.71618" lon="7.32901">
        <ele>376</ele>
        <time>2026-05-13T14:41:11Z</time>
      </trkpt>
      <trkpt lat="48.71629" lon="7.32899">
        <ele>377</ele>
        <time>2026-05-13T14:41:13Z</time>
      </trkpt>
      <trkpt lat="48.71638" lon="7.32889">
        <ele>375</ele>
        <time>2026-05-13T14:41:15Z</time>
      </trkpt>
      <trkpt lat="48.71646" lon="7.32869">
        <ele>371</ele>
        <time>2026-05-13T14:41:18Z</time>
      </trkpt>
      <trkpt lat="48.71665" lon="7.32833">
        <ele>367</ele>
        <time>2026-05-13T14:41:23Z</time>
      </trkpt>
      <trkpt lat="48.71688" lon="7.32815">
        <ele>366</ele>
        <time>2026-05-13T14:41:28Z</time>
      </trkpt>
      <trkpt lat="48.71713" lon="7.32805">
        <ele>367</ele>
        <time>2026-05-13T14:41:32Z</time>
      </trkpt>
      <trkpt lat="48.71738" lon="7.32804">
        <ele>369</ele>
        <time>2026-05-13T14:41:37Z</time>
      </trkpt>
      <trkpt lat="48.71776" lon="7.32815">
        <ele>373</ele>
        <time>2026-05-13T14:41:44Z</time>
      </trkpt>
      <trkpt lat="48.71804" lon="7.3281">
        <ele>372</ele>
        <time>2026-05-13T14:41:49Z</time>
      </trkpt>
      <trkpt lat="48.71839" lon="7.32792">
        <ele>369</ele>
        <time>2026-05-13T14:41:55Z</time>
      </trkpt>
      <trkpt lat="48.71869" lon="7.32768">
        <ele>367</ele>
        <time>2026-05-13T14:42:01Z</time>
      </trkpt>
      <trkpt lat="48.71906" lon="7.32734">
        <ele>363</ele>
        <time>2026-05-13T14:42:09Z</time>
      </trkpt>
      <trkpt lat="48.71934" lon="7.32721">
        <ele>361</ele>
        <time>2026-05-13T14:42:14Z</time>
      </trkpt>
      <trkpt lat="48.71964" lon="7.32714">
        <ele>360</ele>
        <time>2026-05-13T14:42:20Z</time>
      </trkpt>
      <trkpt lat="48.72007" lon="7.32716">
        <ele>360</ele>
        <time>2026-05-13T14:42:27Z</time>
      </trkpt>
      <trkpt lat="48.72041" lon="7.32722">
        <ele>359</ele>
        <time>2026-05-13T14:42:33Z</time>
      </trkpt>
      <trkpt lat="48.72071" lon="7.32739">
        <ele>359</ele>
        <time>2026-05-13T14:42:39Z</time>
      </trkpt>
      <trkpt lat="48.7208" lon="7.32747">
        <ele>360</ele>
        <time>2026-05-13T14:42:41Z</time>
      </trkpt>
      <trkpt lat="48.72093" lon="7.32758">
        <ele>358</ele>
        <time>2026-05-13T14:42:44Z</time>
      </trkpt>
      <trkpt lat="48.72102" lon="7.32772">
        <ele>357</ele>
        <time>2026-05-13T14:42:46Z</time>
      </trkpt>
      <trkpt lat="48.72117" lon="7.32807">
        <ele>355</ele>
        <time>2026-05-13T14:42:51Z</time>
      </trkpt>
      <trkpt lat="48.72129" lon="7.3284">
        <ele>352</ele>
        <time>2026-05-13T14:42:55Z</time>
      </trkpt>
      <trkpt lat="48.72135" lon="7.32876">
        <ele>348</ele>
        <time>2026-05-13T14:43:00Z</time>
      </trkpt>
      <trkpt lat="48.72135" lon="7.32907">
        <ele>346</ele>
        <time>2026-05-13T14:43:03Z</time>
      </trkpt>
      <trkpt lat="48.7213" lon="7.32942">
        <ele>350</ele>
        <time>2026-05-13T14:43:07Z</time>
      </trkpt>
      <trkpt lat="48.7213" lon="7.33091">
        <ele>356</ele>
        <time>2026-05-13T14:43:25Z</time>
      </trkpt>
      <trkpt lat="48.72141" lon="7.33153">
        <ele>354</ele>
        <time>2026-05-13T14:43:32Z</time>
      </trkpt>
      <trkpt lat="48.72157" lon="7.33186">
        <ele>350</ele>
        <time>2026-05-13T14:43:37Z</time>
      </trkpt>
      <trkpt lat="48.72182" lon="7.33205">
        <ele>346</ele>
        <time>2026-05-13T14:43:42Z</time>
      </trkpt>
      <trkpt lat="48.72212" lon="7.33224">
        <ele>346</ele>
        <time>2026-05-13T14:43:48Z</time>
      </trkpt>
      <trkpt lat="48.7227" lon="7.33228">
        <ele>339</ele>
        <time>2026-05-13T14:43:58Z</time>
      </trkpt>
      <trkpt lat="48.72332" lon="7.33237">
        <ele>328</ele>
        <time>2026-05-13T14:44:09Z</time>
      </trkpt>
      <trkpt lat="48.72372" lon="7.3326">
        <ele>322</ele>
        <time>2026-05-13T14:44:17Z</time>
      </trkpt>
      <trkpt lat="48.72406" lon="7.33297">
        <ele>324</ele>
        <time>2026-05-13T14:44:25Z</time>
      </trkpt>
      <trkpt lat="48.72448" lon="7.33346">
        <ele>328</ele>
        <time>2026-05-13T14:44:34Z</time>
      </trkpt>
      <trkpt lat="48.72554" lon="7.33423">
        <ele>324</ele>
        <time>2026-05-13T14:44:55Z</time>
      </trkpt>
      <trkpt lat="48.7257" lon="7.33434">
        <ele>322</ele>
        <time>2026-05-13T14:44:58Z</time>
      </trkpt>
      <trkpt lat="48.72665" lon="7.33543">
        <ele>319</ele>
        <time>2026-05-13T14:45:19Z</time>
      </trkpt>
      <trkpt lat="48.72729" lon="7.33622">
        <ele>320</ele>
        <time>2026-05-13T14:45:34Z</time>
      </trkpt>
      <trkpt lat="48.72774" lon="7.33688">
        <ele>318</ele>
        <time>2026-05-13T14:45:45Z</time>
      </trkpt>
      <trkpt lat="48.72815" lon="7.33766">
        <ele>314</ele>
        <time>2026-05-13T14:45:57Z</time>
      </trkpt>
      <trkpt lat="48.72851" lon="7.33851">
        <ele>310</ele>
        <time>2026-05-13T14:46:09Z</time>
      </trkpt>
      <trkpt lat="48.72867" lon="7.3391">
        <ele>311</ele>
        <time>2026-05-13T14:46:16Z</time>
      </trkpt>
      <trkpt lat="48.72878" lon="7.33957">
        <ele>311</ele>
        <time>2026-05-13T14:46:22Z</time>
      </trkpt>
      <trkpt lat="48.72886" lon="7.34">
        <ele>312</ele>
        <time>2026-05-13T14:46:27Z</time>
      </trkpt>
      <trkpt lat="48.72905" lon="7.34043">
        <ele>307</ele>
        <time>2026-05-13T14:46:33Z</time>
      </trkpt>
      <trkpt lat="48.72949" lon="7.34119">
        <ele>301</ele>
        <time>2026-05-13T14:46:45Z</time>
      </trkpt>
      <trkpt lat="48.73126" lon="7.34324">
        <ele>294</ele>
        <time>2026-05-13T14:47:25Z</time>
      </trkpt>
      <trkpt lat="48.73151" lon="7.34365">
        <ele>296</ele>
        <time>2026-05-13T14:47:31Z</time>
      </trkpt>
      <trkpt lat="48.73174" lon="7.34418">
        <ele>297</ele>
        <time>2026-05-13T14:47:39Z</time>
      </trkpt>
      <trkpt lat="48.73185" lon="7.34441">
        <ele>295</ele>
        <time>2026-05-13T14:47:42Z</time>
      </trkpt>
      <trkpt lat="48.73195" lon="7.34451">
        <ele>293</ele>
        <time>2026-05-13T14:47:44Z</time>
      </trkpt>
      <trkpt lat="48.73206" lon="7.34479">
        <ele>292</ele>
        <time>2026-05-13T14:47:48Z</time>
      </trkpt>
      <trkpt lat="48.73237" lon="7.34543">
        <ele>289</ele>
        <time>2026-05-13T14:47:57Z</time>
      </trkpt>
      <trkpt lat="48.73248" lon="7.34576">
        <ele>289</ele>
        <time>2026-05-13T14:48:02Z</time>
      </trkpt>
      <trkpt lat="48.73251" lon="7.34589">
        <ele>289</ele>
        <time>2026-05-13T14:48:03Z</time>
      </trkpt>
      <trkpt lat="48.73249" lon="7.34598">
        <ele>290</ele>
        <time>2026-05-13T14:48:04Z</time>
      </trkpt>
      <trkpt lat="48.73331" lon="7.34744">
        <ele>279</ele>
        <time>2026-05-13T14:48:27Z</time>
      </trkpt>
      <trkpt lat="48.73345" lon="7.34763">
        <ele>278</ele>
        <time>2026-05-13T14:48:30Z</time>
      </trkpt>
      <trkpt lat="48.73358" lon="7.34783">
        <ele>276</ele>
        <time>2026-05-13T14:48:34Z</time>
      </trkpt>
      <trkpt lat="48.73381" lon="7.34815">
        <ele>274</ele>
        <time>2026-05-13T14:48:39Z</time>
      </trkpt>
      <trkpt lat="48.73386" lon="7.34827">
        <ele>274</ele>
        <time>2026-05-13T14:48:41Z</time>
      </trkpt>
      <trkpt lat="48.7339" lon="7.34824">
        <ele>273</ele>
        <time>2026-05-13T14:48:42Z</time>
      </trkpt>
      <trkpt lat="48.734" lon="7.34823">
        <ele>272</ele>
        <time>2026-05-13T14:48:43Z</time>
      </trkpt>
      <trkpt lat="48.73412" lon="7.34824">
        <ele>270</ele>
        <time>2026-05-13T14:48:45Z</time>
      </trkpt>
      <trkpt lat="48.7351" lon="7.34832">
        <ele>264</ele>
        <time>2026-05-13T14:49:03Z</time>
      </trkpt>
      <trkpt lat="48.7352" lon="7.34835">
        <ele>263</ele>
        <time>2026-05-13T14:49:05Z</time>
      </trkpt>
      <trkpt lat="48.73535" lon="7.34841">
        <ele>261</ele>
        <time>2026-05-13T14:49:08Z</time>
      </trkpt>
      <trkpt lat="48.73576" lon="7.34858">
        <ele>257</ele>
        <time>2026-05-13T14:49:15Z</time>
      </trkpt>
      <trkpt lat="48.7359" lon="7.34864">
        <ele>256</ele>
        <time>2026-05-13T14:49:18Z</time>
      </trkpt>
      <trkpt lat="48.73607" lon="7.3487">
        <ele>254</ele>
        <time>2026-05-13T14:49:21Z</time>
      </trkpt>
      <trkpt lat="48.73751" lon="7.34907">
        <ele>238</ele>
        <time>2026-05-13T14:49:47Z</time>
      </trkpt>
      <trkpt lat="48.73792" lon="7.34917">
        <ele>235</ele>
        <time>2026-05-13T14:49:54Z</time>
      </trkpt>
      <trkpt lat="48.73831" lon="7.34922">
        <ele>232</ele>
        <time>2026-05-13T14:50:01Z</time>
      </trkpt>
      <trkpt lat="48.73851" lon="7.34924">
        <ele>230</ele>
        <time>2026-05-13T14:50:05Z</time>
      </trkpt>
      <trkpt lat="48.73867" lon="7.34932">
        <ele>228</ele>
        <time>2026-05-13T14:50:08Z</time>
      </trkpt>
      <trkpt lat="48.73879" lon="7.34941">
        <ele>227</ele>
        <time>2026-05-13T14:50:10Z</time>
      </trkpt>
      <trkpt lat="48.73914" lon="7.34972">
        <ele>225</ele>
        <time>2026-05-13T14:50:17Z</time>
      </trkpt>
      <trkpt lat="48.73937" lon="7.34996">
        <ele>222</ele>
        <time>2026-05-13T14:50:22Z</time>
      </trkpt>
      <trkpt lat="48.73954" lon="7.35016">
        <ele>219</ele>
        <time>2026-05-13T14:50:26Z</time>
      </trkpt>
      <trkpt lat="48.73978" lon="7.35051">
        <ele>214</ele>
        <time>2026-05-13T14:50:32Z</time>
      </trkpt>
      <trkpt lat="48.73993" lon="7.3508">
        <ele>211</ele>
        <time>2026-05-13T14:50:36Z</time>
      </trkpt>
      <trkpt lat="48.74007" lon="7.35116">
        <ele>209</ele>
        <time>2026-05-13T14:50:41Z</time>
      </trkpt>
      <trkpt lat="48.74012" lon="7.35132">
        <ele>208</ele>
        <time>2026-05-13T14:50:43Z</time>
      </trkpt>
      <trkpt lat="48.74016" lon="7.35149">
        <ele>208</ele>
        <time>2026-05-13T14:50:45Z</time>
      </trkpt>
      <trkpt lat="48.74019" lon="7.35171">
        <ele>207</ele>
        <time>2026-05-13T14:50:48Z</time>
      </trkpt>
      <trkpt lat="48.74021" lon="7.3519">
        <ele>206</ele>
        <time>2026-05-13T14:50:50Z</time>
      </trkpt>
      <trkpt lat="48.74024" lon="7.35224">
        <ele>205</ele>
        <time>2026-05-13T14:50:54Z</time>
      </trkpt>
      <trkpt lat="48.74024" lon="7.35232">
        <ele>205</ele>
        <time>2026-05-13T14:50:55Z</time>
      </trkpt>
      <trkpt lat="48.74027" lon="7.35273">
        <ele>203</ele>
        <time>2026-05-13T14:51:00Z</time>
      </trkpt>
      <trkpt lat="48.74034" lon="7.35402">
        <ele>199</ele>
        <time>2026-05-13T14:51:15Z</time>
      </trkpt>
      <trkpt lat="48.74037" lon="7.35452">
        <ele>198</ele>
        <time>2026-05-13T14:51:21Z</time>
      </trkpt>
      <trkpt lat="48.7404" lon="7.35471">
        <ele>197</ele>
        <time>2026-05-13T14:51:23Z</time>
      </trkpt>
      <trkpt lat="48.74083" lon="7.35455">
        <ele>194</ele>
        <time>2026-05-13T14:51:31Z</time>
      </trkpt>
      <trkpt lat="48.74091" lon="7.35453">
        <ele>193</ele>
        <time>2026-05-13T14:51:33Z</time>
      </trkpt>
      <trkpt lat="48.74088" lon="7.35626">
        <ele>196</ele>
        <time>2026-05-13T14:51:53Z</time>
      </trkpt>
      <trkpt lat="48.74091" lon="7.35637">
        <ele>196</ele>
        <time>2026-05-13T14:51:55Z</time>
      </trkpt>
      <trkpt lat="48.74092" lon="7.35652">
        <ele>197</ele>
        <time>2026-05-13T14:51:56Z</time>
      </trkpt>
      <trkpt lat="48.74086" lon="7.35918">
        <ele>199</ele>
        <time>2026-05-13T14:52:28Z</time>
      </trkpt>
      <trkpt lat="48.74098" lon="7.35939">
        <ele>199</ele>
        <time>2026-05-13T14:52:31Z</time>
      </trkpt>
      <trkpt lat="48.74114" lon="7.35971">
        <ele>198</ele>
        <time>2026-05-13T14:52:35Z</time>
      </trkpt>
      <trkpt lat="48.74152" lon="7.36043">
        <ele>198</ele>
        <time>2026-05-13T14:52:46Z</time>
      </trkpt>
      <trkpt lat="48.74174" lon="7.36082">
        <ele>198</ele>
        <time>2026-05-13T14:52:52Z</time>
      </trkpt>
      <trkpt lat="48.74186" lon="7.36107">
        <ele>197</ele>
        <time>2026-05-13T14:52:56Z</time>
      </trkpt>
      <trkpt lat="48.74194" lon="7.36124">
        <ele>196</ele>
        <time>2026-05-13T14:52:58Z</time>
      </trkpt>
      <trkpt lat="48.74201" lon="7.36139">
        <ele>195</ele>
        <time>2026-05-13T14:53:01Z</time>
      </trkpt>
      <trkpt lat="48.74261" lon="7.3625">
        <ele>188</ele>
        <time>2026-05-13T14:53:17Z</time>
      </trkpt>
      <trkpt lat="48.74287" lon="7.36299">
        <ele>188</ele>
        <time>2026-05-13T14:53:25Z</time>
      </trkpt>
      <trkpt lat="48.74282" lon="7.36305">
        <ele>189</ele>
        <time>2026-05-13T14:53:26Z</time>
      </trkpt>
      <trkpt lat="48.74274" lon="7.36315">
        <ele>189</ele>
        <time>2026-05-13T14:53:28Z</time>
      </trkpt>
      <trkpt lat="48.74255" lon="7.36337">
        <ele>192</ele>
        <time>2026-05-13T14:53:32Z</time>
      </trkpt>
    </trkseg>
  </trk>
</gpx>